GEFSGL_prec_meanprecacc_204.txt.gz
Total_Precipitation_Accumulation
0.94 0.91 0.83 0.77 0.75 0.73 0.71 0.67 0.63 0.58 0.55 0.51 0.48 0.45 0.42 0.42 0.48 0.56 0.60 0.59 0.60 0.60 0.60 0.62 0.66 0.70 0.79 0.79 0.81 0.87 1.00 1.17 1.28 1.11 0.93 0.86 0.84 0.85 0.86 0.82 0.73 0.63 0.59
0.84 0.79 0.71 0.65 0.62 0.59 0.57 0.51 0.46 0.45 0.46 0.44 0.42 0.40 0.37 0.38 0.44 0.49 0.51 0.50 0.53 0.55 0.55 0.54 0.56 0.62 0.70 0.72 0.75 0.79 0.87 1.00 1.11 1.12 0.99 0.87 0.80 0.80 0.79 0.78 0.60 0.49 0.47
0.79 0.79 0.74 0.66 0.59 0.55 0.55 0.51 0.45 0.45 0.45 0.43 0.42 0.40 0.38 0.36 0.38 0.39 0.40 0.45 0.48 0.50 0.48 0.47 0.50 0.55 0.60 0.61 0.67 0.73 0.78 0.83 0.94 0.96 0.86 0.77 0.68 0.63 0.73 0.76 0.68 0.63 0.42
0.76 0.81 0.79 0.73 0.66 0.61 0.57 0.58 0.52 0.48 0.46 0.42 0.40 0.38 0.36 0.32 0.33 0.36 0.34 0.37 0.44 0.43 0.38 0.40 0.44 0.45 0.47 0.53 0.57 0.67 0.76 0.84 0.88 0.87 0.78 0.67 0.64 0.63 0.77 0.87 0.80 0.67 0.53
0.72 0.72 0.68 0.64 0.64 0.60 0.56 0.56 0.54 0.48 0.44 0.43 0.39 0.39 0.35 0.32 0.31 0.33 0.31 0.31 0.39 0.39 0.37 0.37 0.37 0.36 0.38 0.42 0.46 0.55 0.70 0.84 0.89 0.92 0.84 0.72 0.69 0.79 0.85 0.82 0.78 0.66 0.54
0.67 0.67 0.62 0.56 0.54 0.51 0.50 0.47 0.45 0.43 0.42 0.42 0.44 0.41 0.36 0.33 0.36 0.34 0.27 0.30 0.35 0.38 0.41 0.38 0.35 0.32 0.31 0.32 0.35 0.42 0.55 0.72 0.88 0.99 0.93 0.86 0.80 0.87 0.94 0.89 0.92 0.89 0.77
0.71 0.66 0.62 0.59 0.56 0.49 0.45 0.45 0.44 0.46 0.45 0.45 0.44 0.43 0.41 0.37 0.33 0.29 0.24 0.26 0.33 0.44 0.49 0.47 0.38 0.33 0.40 0.42 0.38 0.35 0.41 0.51 0.73 0.98 1.09 1.00 0.92 0.99 1.11 1.09 1.06 1.05 0.96
0.70 0.64 0.59 0.57 0.56 0.51 0.50 0.51 0.46 0.46 0.47 0.50 0.49 0.45 0.46 0.40 0.35 0.31 0.28 0.32 0.36 0.43 0.48 0.47 0.52 0.52 0.45 0.43 0.39 0.43 0.52 0.62 0.69 0.77 0.96 0.97 0.86 0.87 1.01 1.05 1.01 0.98 0.93
0.62 0.56 0.54 0.52 0.54 0.53 0.53 0.51 0.47 0.49 0.52 0.55 0.51 0.50 0.52 0.48 0.40 0.37 0.39 0.45 0.42 0.42 0.41 0.40 0.46 0.49 0.42 0.40 0.43 0.53 0.61 0.67 0.58 0.68 0.77 0.87 0.91 0.85 0.82 0.86 1.02 1.11 1.12
0.53 0.46 0.44 0.48 0.50 0.49 0.49 0.51 0.50 0.53 0.57 0.55 0.53 0.53 0.52 0.47 0.35 0.34 0.38 0.42 0.43 0.40 0.43 0.44 0.42 0.38 0.37 0.38 0.44 0.57 0.68 0.69 0.75 0.91 1.08 1.17 1.13 1.03 0.87 0.90 1.11 1.24 1.26
0.44 0.41 0.43 0.49 0.53 0.49 0.48 0.52 0.54 0.54 0.59 0.59 0.52 0.47 0.44 0.37 0.30 0.27 0.27 0.31 0.37 0.39 0.45 0.52 0.50 0.40 0.37 0.35 0.41 0.54 0.65 0.71 0.97 1.29 1.35 1.25 1.16 1.08 0.97 0.91 0.99 1.10 1.23
0.45 0.44 0.46 0.48 0.40 0.38 0.52 0.56 0.53 0.58 0.62 0.55 0.48 0.45 0.40 0.34 0.25 0.19 0.19 0.23 0.29 0.38 0.54 0.53 0.49 0.44 0.37 0.37 0.44 0.60 0.68 0.88 1.18 1.39 1.31 1.12 0.99 0.91 0.85 0.81 0.82 0.87 1.00
0.57 0.56 0.52 0.51 0.49 0.51 0.56 0.54 0.52 0.53 0.49 0.39 0.36 0.35 0.33 0.33 0.28 0.18 0.16 0.20 0.26 0.32 0.47 0.51 0.49 0.47 0.46 0.59 0.67 0.78 0.88 1.08 1.28 1.27 1.13 1.00 0.90 0.82 0.74 0.74 0.72 0.75 0.78
0.65 0.60 0.54 0.54 0.58 0.57 0.52 0.42 0.39 0.36 0.34 0.34 0.32 0.31 0.30 0.29 0.23 0.18 0.17 0.22 0.28 0.32 0.41 0.54 0.64 0.68 0.70 0.80 0.89 1.00 1.09 1.17 1.14 1.04 0.92 0.85 0.78 0.76 0.74 0.71 0.72 0.73 0.79
0.65 0.61 0.54 0.47 0.48 0.50 0.40 0.28 0.27 0.25 0.22 0.26 0.27 0.25 0.27 0.25 0.18 0.18 0.19 0.22 0.30 0.36 0.41 0.59 0.80 0.87 0.91 0.95 0.95 1.01 1.08 1.05 1.02 0.96 0.89 0.80 0.74 0.74 0.75 0.74 0.77 0.74 0.76
0.56 0.54 0.47 0.38 0.34 0.30 0.28 0.28 0.21 0.18 0.19 0.20 0.23 0.21 0.17 0.16 0.15 0.15 0.19 0.24 0.32 0.41 0.47 0.68 0.87 0.93 0.94 0.96 0.93 0.94 0.97 0.94 0.88 0.86 0.86 0.82 0.78 0.75 0.76 0.78 0.80 0.77 0.78
0.48 0.44 0.32 0.24 0.22 0.22 0.24 0.32 0.34 0.25 0.17 0.15 0.15 0.15 0.15 0.15 0.14 0.15 0.19 0.25 0.32 0.40 0.49 0.68 0.87 1.00 1.01 0.93 0.87 0.86 0.91 0.92 0.88 0.86 0.82 0.81 0.76 0.72 0.73 0.74 0.72 0.70 0.72
0.34 0.27 0.20 0.19 0.16 0.15 0.15 0.20 0.30 0.36 0.31 0.24 0.17 0.14 0.14 0.14 0.15 0.15 0.19 0.24 0.34 0.41 0.52 0.68 0.81 0.88 0.91 0.91 0.85 0.82 0.84 0.86 0.85 0.80 0.76 0.75 0.73 0.70 0.67 0.69 0.67 0.61 0.59
0.23 0.20 0.17 0.14 0.12 0.11 0.12 0.13 0.17 0.21 0.26 0.27 0.25 0.18 0.15 0.16 0.20 0.22 0.23 0.27 0.36 0.42 0.51 0.61 0.69 0.70 0.68 0.69 0.68 0.68 0.72 0.77 0.75 0.68 0.66 0.69 0.70 0.68 0.65 0.61 0.56 0.47 0.48
0.15 0.11 0.10 0.09 0.10 0.10 0.09 0.10 0.12 0.15 0.20 0.24 0.24 0.20 0.18 0.26 0.34 0.34 0.29 0.28 0.30 0.35 0.42 0.51 0.58 0.55 0.53 0.52 0.50 0.51 0.53 0.56 0.56 0.55 0.55 0.55 0.57 0.58 0.55 0.50 0.46 0.44 0.45
0.08 0.07 0.07 0.07 0.08 0.09 0.08 0.07 0.08 0.10 0.14 0.19 0.18 0.14 0.19 0.28 0.36 0.39 0.39 0.38 0.37 0.37 0.38 0.39 0.43 0.46 0.47 0.46 0.43 0.40 0.40 0.42 0.44 0.47 0.48 0.49 0.50 0.49 0.44 0.41 0.39 0.35 0.34
0.05 0.05 0.04 0.05 0.06 0.06 0.05 0.04 0.05 0.06 0.11 0.14 0.15 0.13 0.19 0.24 0.30 0.33 0.39 0.45 0.45 0.43 0.40 0.38 0.39 0.43 0.48 0.48 0.42 0.38 0.38 0.39 0.40 0.44 0.46 0.46 0.44 0.39 0.35 0.34 0.32 0.32 0.31
0.02 0.02 0.02 0.02 0.02 0.02 0.03 0.03 0.04 0.05 0.08 0.10 0.11 0.13 0.17 0.23 0.26 0.29 0.35 0.41 0.46 0.45 0.41 0.39 0.40 0.43 0.45 0.46 0.43 0.37 0.34 0.33 0.34 0.36 0.41 0.43 0.40 0.36 0.32 0.31 0.29 0.30 0.31
0.02 0.02 0.02 0.01 0.01 0.01 0.02 0.02 0.03 0.04 0.05 0.06 0.08 0.12 0.16 0.21 0.23 0.26 0.31 0.36 0.42 0.45 0.43 0.42 0.41 0.41 0.41 0.42 0.39 0.30 0.27 0.27 0.26 0.27 0.32 0.35 0.33 0.30 0.26 0.26 0.27 0.28 0.30
0.02 0.02 0.01 0.01 0.01 0.01 0.02 0.02 0.03 0.04 0.04 0.05 0.07 0.10 0.11 0.14 0.18 0.20 0.24 0.30 0.35 0.39 0.39 0.38 0.38 0.35 0.32 0.32 0.30 0.25 0.23 0.24 0.24 0.24 0.26 0.28 0.26 0.26 0.26 0.26 0.25 0.26 0.28
0.01 0.02 0.02 0.01 0.01 0.02 0.03 0.03 0.04 0.05 0.06 0.06 0.07 0.07 0.08 0.10 0.13 0.15 0.17 0.19 0.24 0.28 0.31 0.32 0.31 0.28 0.25 0.22 0.22 0.23 0.22 0.20 0.20 0.21 0.25 0.28 0.27 0.27 0.28 0.28 0.26 0.29 0.32

GEFSGL_prec_meanprecacc_210.txt.gz
Total_Precipitation_Accumulation
0.97 0.93 0.85 0.79 0.77 0.76 0.73 0.69 0.66 0.63 0.58 0.54 0.50 0.48 0.46 0.45 0.50 0.59 0.64 0.62 0.63 0.63 0.63 0.65 0.70 0.74 0.83 0.83 0.86 0.93 1.06 1.23 1.34 1.16 0.98 0.91 0.90 0.93 0.94 0.91 0.79 0.67 0.62
0.87 0.82 0.74 0.68 0.64 0.62 0.60 0.54 0.48 0.49 0.49 0.47 0.46 0.43 0.39 0.40 0.47 0.52 0.54 0.52 0.56 0.58 0.58 0.57 0.59 0.65 0.74 0.76 0.79 0.83 0.91 1.05 1.17 1.19 1.05 0.92 0.86 0.87 0.89 0.87 0.68 0.54 0.51
0.81 0.81 0.77 0.70 0.63 0.60 0.59 0.54 0.48 0.48 0.48 0.46 0.46 0.44 0.41 0.39 0.40 0.42 0.42 0.47 0.51 0.53 0.51 0.50 0.53 0.58 0.64 0.68 0.74 0.77 0.83 0.87 0.99 1.03 0.92 0.83 0.74 0.70 0.82 0.87 0.79 0.72 0.48
0.79 0.85 0.85 0.79 0.72 0.65 0.60 0.61 0.56 0.52 0.49 0.45 0.43 0.41 0.39 0.34 0.35 0.38 0.36 0.40 0.48 0.46 0.42 0.43 0.47 0.48 0.52 0.59 0.64 0.74 0.83 0.91 0.95 0.94 0.85 0.75 0.71 0.71 0.87 0.98 0.90 0.76 0.61
0.74 0.76 0.73 0.69 0.69 0.63 0.59 0.59 0.56 0.51 0.47 0.45 0.42 0.41 0.38 0.34 0.33 0.35 0.33 0.34 0.44 0.43 0.42 0.41 0.40 0.39 0.41 0.47 0.53 0.62 0.76 0.92 0.98 1.02 0.94 0.81 0.77 0.88 0.95 0.91 0.87 0.74 0.61
0.69 0.71 0.65 0.58 0.57 0.54 0.53 0.49 0.46 0.45 0.44 0.44 0.46 0.43 0.37 0.34 0.38 0.38 0.30 0.34 0.40 0.44 0.46 0.42 0.38 0.35 0.33 0.34 0.38 0.45 0.59 0.76 0.93 1.05 1.01 0.94 0.87 0.95 1.02 0.97 1.01 0.96 0.85
0.72 0.68 0.64 0.62 0.58 0.52 0.48 0.47 0.47 0.48 0.47 0.46 0.46 0.45 0.42 0.38 0.38 0.34 0.27 0.32 0.40 0.49 0.54 0.51 0.41 0.36 0.41 0.44 0.41 0.38 0.45 0.55 0.77 1.02 1.14 1.06 0.99 1.06 1.18 1.16 1.14 1.12 1.02
0.72 0.66 0.61 0.59 0.58 0.54 0.53 0.53 0.48 0.48 0.50 0.54 0.52 0.47 0.49 0.45 0.41 0.36 0.34 0.39 0.41 0.47 0.51 0.50 0.54 0.54 0.47 0.45 0.41 0.45 0.55 0.64 0.72 0.81 1.00 1.02 0.90 0.92 1.07 1.10 1.08 1.05 0.98
0.64 0.58 0.56 0.54 0.56 0.56 0.55 0.53 0.49 0.51 0.56 0.59 0.56 0.56 0.60 0.58 0.50 0.45 0.47 0.49 0.45 0.45 0.43 0.42 0.47 0.51 0.44 0.42 0.46 0.56 0.64 0.69 0.60 0.70 0.80 0.90 0.95 0.88 0.86 0.92 1.09 1.22 1.21
0.55 0.49 0.47 0.50 0.53 0.51 0.51 0.53 0.52 0.56 0.59 0.59 0.60 0.61 0.60 0.56 0.44 0.39 0.42 0.45 0.45 0.43 0.45 0.46 0.44 0.40 0.39 0.40 0.46 0.60 0.70 0.71 0.77 0.93 1.11 1.21 1.18 1.08 0.92 0.97 1.20 1.34 1.35
0.46 0.45 0.46 0.50 0.55 0.51 0.50 0.55 0.56 0.55 0.60 0.61 0.57 0.52 0.49 0.41 0.33 0.30 0.29 0.32 0.38 0.40 0.47 0.54 0.51 0.42 0.39 0.37 0.44 0.56 0.67 0.72 0.99 1.32 1.38 1.30 1.21 1.14 1.03 0.98 1.07 1.20 1.32
0.48 0.47 0.48 0.49 0.41 0.39 0.53 0.58 0.55 0.59 0.64 0.58 0.51 0.48 0.42 0.37 0.27 0.21 0.21 0.25 0.31 0.40 0.57 0.57 0.52 0.47 0.40 0.39 0.46 0.62 0.69 0.90 1.21 1.42 1.35 1.16 1.04 0.97 0.90 0.87 0.91 0.97 1.10
0.61 0.58 0.53 0.52 0.50 0.53 0.58 0.55 0.53 0.54 0.50 0.42 0.39 0.38 0.35 0.35 0.31 0.21 0.19 0.22 0.29 0.35 0.50 0.54 0.52 0.49 0.48 0.62 0.69 0.80 0.90 1.10 1.31 1.32 1.17 1.04 0.95 0.88 0.80 0.81 0.81 0.85 0.85
0.67 0.61 0.54 0.56 0.60 0.59 0.54 0.43 0.40 0.37 0.35 0.35 0.33 0.32 0.31 0.30 0.24 0.19 0.19 0.24 0.30 0.34 0.43 0.56 0.66 0.70 0.72 0.82 0.92 1.03 1.12 1.21 1.18 1.09 0.96 0.88 0.81 0.81 0.79 0.78 0.80 0.81 0.85
0.66 0.62 0.56 0.50 0.50 0.52 0.41 0.29 0.28 0.26 0.23 0.26 0.28 0.27 0.28 0.26 0.18 0.19 0.20 0.23 0.31 0.37 0.42 0.60 0.82 0.89 0.93 0.99 1.00 1.06 1.12 1.08 1.05 0.99 0.92 0.83 0.77 0.78 0.80 0.79 0.84 0.79 0.81
0.58 0.56 0.49 0.39 0.35 0.31 0.29 0.29 0.23 0.19 0.20 0.22 0.24 0.22 0.17 0.17 0.16 0.16 0.20 0.25 0.33 0.43 0.49 0.70 0.89 0.96 0.98 1.00 0.97 0.97 1.00 0.96 0.91 0.89 0.90 0.84 0.80 0.78 0.80 0.83 0.85 0.83 0.83
0.50 0.46 0.34 0.25 0.23 0.22 0.25 0.34 0.37 0.28 0.21 0.19 0.18 0.17 0.16 0.16 0.16 0.16 0.21 0.27 0.34 0.41 0.50 0.69 0.89 1.03 1.04 0.95 0.89 0.88 0.93 0.93 0.90 0.88 0.85 0.83 0.78 0.75 0.77 0.79 0.79 0.76 0.77
0.35 0.28 0.22 0.20 0.17 0.16 0.16 0.22 0.34 0.40 0.36 0.30 0.23 0.18 0.17 0.16 0.18 0.18 0.21 0.26 0.35 0.41 0.53 0.69 0.83 0.90 0.92 0.92 0.86 0.83 0.85 0.88 0.88 0.84 0.79 0.78 0.75 0.73 0.71 0.73 0.74 0.67 0.64
0.25 0.22 0.19 0.16 0.14 0.13 0.13 0.15 0.20 0.24 0.29 0.32 0.30 0.23 0.18 0.18 0.23 0.24 0.24 0.27 0.36 0.42 0.51 0.61 0.70 0.72 0.70 0.70 0.69 0.69 0.73 0.78 0.77 0.73 0.71 0.72 0.73 0.71 0.68 0.65 0.61 0.54 0.54
0.18 0.13 0.12 0.10 0.11 0.11 0.10 0.11 0.13 0.16 0.21 0.27 0.27 0.23 0.21 0.28 0.36 0.35 0.30 0.29 0.31 0.35 0.43 0.52 0.59 0.56 0.54 0.53 0.51 0.52 0.54 0.57 0.57 0.57 0.57 0.57 0.59 0.60 0.57 0.53 0.50 0.49 0.50
0.10 0.09 0.08 0.08 0.09 0.10 0.08 0.08 0.09 0.11 0.14 0.20 0.19 0.16 0.21 0.28 0.37 0.40 0.39 0.38 0.38 0.38 0.39 0.40 0.44 0.47 0.47 0.46 0.44 0.41 0.42 0.44 0.45 0.47 0.49 0.51 0.51 0.51 0.46 0.43 0.42 0.38 0.38
0.08 0.08 0.05 0.06 0.07 0.06 0.05 0.05 0.05 0.07 0.11 0.14 0.15 0.14 0.19 0.24 0.30 0.34 0.40 0.46 0.45 0.44 0.41 0.39 0.40 0.44 0.48 0.49 0.43 0.39 0.38 0.40 0.41 0.44 0.47 0.47 0.45 0.40 0.37 0.36 0.34 0.35 0.35
0.04 0.04 0.03 0.03 0.03 0.03 0.03 0.04 0.04 0.05 0.08 0.10 0.11 0.13 0.17 0.23 0.26 0.29 0.35 0.42 0.46 0.46 0.42 0.39 0.41 0.44 0.45 0.47 0.44 0.37 0.34 0.34 0.34 0.36 0.42 0.43 0.41 0.37 0.33 0.33 0.31 0.32 0.35
0.03 0.02 0.02 0.02 0.02 0.02 0.02 0.03 0.03 0.04 0.05 0.06 0.08 0.12 0.16 0.21 0.23 0.26 0.31 0.36 0.42 0.45 0.43 0.42 0.41 0.41 0.41 0.43 0.39 0.30 0.27 0.27 0.26 0.27 0.32 0.36 0.34 0.30 0.27 0.28 0.29 0.30 0.33
0.02 0.02 0.02 0.02 0.01 0.01 0.02 0.03 0.04 0.04 0.04 0.05 0.07 0.10 0.11 0.14 0.18 0.20 0.24 0.30 0.35 0.39 0.39 0.38 0.38 0.35 0.33 0.32 0.31 0.25 0.24 0.24 0.24 0.24 0.26 0.28 0.27 0.27 0.27 0.28 0.28 0.29 0.31
0.01 0.02 0.02 0.02 0.01 0.02 0.04 0.04 0.05 0.05 0.06 0.06 0.07 0.07 0.08 0.10 0.13 0.15 0.17 0.19 0.24 0.28 0.31 0.32 0.31 0.29 0.25 0.22 0.22 0.23 0.23 0.21 0.20 0.22 0.25 0.29 0.28 0.28 0.29 0.29 0.28 0.31 0.35

GEFSGL_prec_meanprecacc_216.txt.gz
Total_Precipitation_Accumulation
1.03 1.01 0.94 0.87 0.84 0.83 0.81 0.77 0.74 0.69 0.64 0.59 0.55 0.52 0.49 0.49 0.54 0.64 0.69 0.68 0.68 0.68 0.68 0.70 0.74 0.78 0.89 0.88 0.91 0.98 1.13 1.31 1.40 1.19 1.02 0.96 0.97 0.99 1.00 0.96 0.85 0.73 0.69
0.91 0.88 0.79 0.73 0.71 0.70 0.68 0.62 0.56 0.58 0.57 0.53 0.50 0.47 0.42 0.44 0.51 0.56 0.57 0.56 0.61 0.62 0.63 0.62 0.63 0.70 0.80 0.83 0.87 0.89 0.97 1.12 1.24 1.24 1.10 0.97 0.92 0.95 0.97 0.96 0.75 0.59 0.56
0.85 0.86 0.83 0.75 0.69 0.66 0.66 0.60 0.55 0.56 0.54 0.50 0.49 0.47 0.45 0.42 0.44 0.45 0.45 0.50 0.54 0.57 0.56 0.55 0.58 0.64 0.72 0.76 0.81 0.84 0.88 0.92 1.05 1.08 0.97 0.90 0.81 0.78 0.93 0.97 0.87 0.80 0.53
0.82 0.89 0.89 0.84 0.77 0.70 0.67 0.68 0.63 0.57 0.53 0.49 0.46 0.45 0.41 0.37 0.38 0.40 0.39 0.43 0.52 0.50 0.47 0.49 0.53 0.55 0.59 0.66 0.70 0.80 0.89 0.97 1.01 1.02 0.93 0.83 0.80 0.81 1.00 1.09 1.00 0.85 0.66
0.77 0.79 0.76 0.73 0.73 0.68 0.65 0.66 0.62 0.57 0.52 0.49 0.45 0.44 0.41 0.37 0.35 0.37 0.36 0.37 0.48 0.49 0.48 0.48 0.46 0.45 0.47 0.52 0.57 0.66 0.81 0.98 1.04 1.09 1.02 0.90 0.86 0.98 1.05 1.00 0.96 0.82 0.68
0.71 0.72 0.67 0.62 0.62 0.59 0.59 0.54 0.50 0.51 0.52 0.50 0.50 0.48 0.43 0.37 0.40 0.40 0.32 0.37 0.44 0.49 0.52 0.50 0.45 0.41 0.37 0.38 0.40 0.48 0.62 0.81 0.98 1.11 1.07 1.00 0.94 1.02 1.10 1.04 1.09 1.04 0.91
0.73 0.69 0.66 0.66 0.64 0.59 0.56 0.54 0.51 0.52 0.52 0.52 0.51 0.50 0.48 0.42 0.40 0.36 0.29 0.35 0.44 0.56 0.61 0.59 0.48 0.40 0.45 0.47 0.43 0.41 0.48 0.58 0.81 1.06 1.18 1.10 1.03 1.12 1.24 1.22 1.20 1.18 1.08
0.72 0.66 0.62 0.62 0.63 0.61 0.63 0.63 0.57 0.53 0.55 0.59 0.58 0.53 0.54 0.48 0.44 0.39 0.37 0.42 0.45 0.53 0.57 0.55 0.59 0.59 0.51 0.47 0.43 0.47 0.57 0.67 0.74 0.83 1.03 1.05 0.94 0.97 1.12 1.17 1.15 1.11 1.03
0.65 0.59 0.57 0.56 0.59 0.60 0.61 0.62 0.57 0.57 0.61 0.65 0.62 0.61 0.64 0.61 0.53 0.48 0.50 0.53 0.50 0.49 0.46 0.45 0.51 0.54 0.47 0.44 0.48 0.59 0.67 0.73 0.62 0.71 0.81 0.92 0.97 0.91 0.90 0.98 1.16 1.29 1.27
0.57 0.50 0.48 0.52 0.55 0.54 0.55 0.60 0.60 0.61 0.65 0.64 0.65 0.67 0.65 0.61 0.48 0.43 0.46 0.48 0.49 0.46 0.48 0.50 0.46 0.42 0.41 0.42 0.50 0.64 0.74 0.74 0.80 0.97 1.14 1.24 1.21 1.12 0.95 1.02 1.26 1.41 1.42
0.48 0.47 0.48 0.52 0.57 0.54 0.55 0.60 0.61 0.60 0.65 0.65 0.61 0.57 0.55 0.45 0.36 0.32 0.32 0.34 0.40 0.43 0.50 0.57 0.55 0.45 0.42 0.40 0.47 0.59 0.70 0.75 1.02 1.36 1.42 1.34 1.26 1.20 1.09 1.05 1.14 1.27 1.41
0.52 0.51 0.52 0.52 0.43 0.43 0.57 0.61 0.58 0.62 0.66 0.61 0.56 0.53 0.48 0.41 0.29 0.22 0.22 0.26 0.32 0.41 0.59 0.59 0.55 0.50 0.42 0.41 0.49 0.65 0.72 0.92 1.24 1.46 1.39 1.20 1.07 1.01 0.95 0.93 0.99 1.06 1.19
0.66 0.63 0.57 0.55 0.53 0.57 0.61 0.58 0.56 0.57 0.54 0.44 0.41 0.42 0.39 0.39 0.33 0.22 0.20 0.23 0.30 0.36 0.52 0.55 0.54 0.51 0.50 0.63 0.71 0.82 0.92 1.12 1.34 1.35 1.20 1.08 0.99 0.92 0.84 0.85 0.87 0.92 0.92
0.72 0.65 0.59 0.60 0.65 0.62 0.57 0.47 0.44 0.40 0.38 0.38 0.35 0.34 0.32 0.31 0.25 0.19 0.20 0.25 0.31 0.35 0.45 0.58 0.68 0.72 0.74 0.84 0.94 1.06 1.15 1.24 1.22 1.12 0.99 0.92 0.85 0.85 0.83 0.81 0.84 0.85 0.89
0.71 0.67 0.61 0.54 0.53 0.54 0.43 0.31 0.31 0.28 0.24 0.28 0.29 0.28 0.28 0.26 0.19 0.19 0.21 0.24 0.31 0.38 0.43 0.62 0.84 0.92 0.98 1.03 1.04 1.09 1.15 1.11 1.09 1.03 0.95 0.86 0.80 0.81 0.83 0.82 0.86 0.82 0.84
0.64 0.60 0.52 0.41 0.37 0.33 0.30 0.30 0.24 0.20 0.21 0.23 0.25 0.23 0.18 0.18 0.16 0.16 0.20 0.26 0.34 0.44 0.51 0.73 0.93 1.00 1.02 1.04 1.01 1.01 1.04 1.00 0.94 0.91 0.92 0.87 0.83 0.81 0.83 0.86 0.88 0.86 0.87
0.55 0.49 0.36 0.26 0.24 0.24 0.27 0.36 0.39 0.30 0.23 0.21 0.19 0.18 0.17 0.17 0.16 0.17 0.22 0.29 0.35 0.43 0.52 0.72 0.93 1.09 1.10 1.01 0.93 0.92 0.95 0.96 0.93 0.90 0.87 0.86 0.82 0.78 0.80 0.82 0.82 0.80 0.81
0.39 0.30 0.23 0.21 0.18 0.17 0.17 0.25 0.39 0.43 0.38 0.33 0.26 0.20 0.19 0.19 0.20 0.20 0.23 0.28 0.38 0.44 0.56 0.72 0.87 0.95 0.97 0.96 0.89 0.86 0.87 0.90 0.91 0.87 0.82 0.81 0.79 0.76 0.74 0.77 0.77 0.71 0.68
0.27 0.23 0.19 0.16 0.14 0.14 0.15 0.19 0.25 0.28 0.33 0.36 0.34 0.27 0.22 0.22 0.26 0.27 0.26 0.30 0.40 0.46 0.55 0.65 0.73 0.75 0.73 0.74 0.73 0.72 0.76 0.81 0.80 0.76 0.75 0.76 0.76 0.73 0.71 0.67 0.64 0.57 0.57
0.20 0.14 0.12 0.11 0.11 0.12 0.12 0.16 0.19 0.21 0.25 0.30 0.31 0.27 0.25 0.31 0.38 0.38 0.33 0.32 0.33 0.37 0.45 0.54 0.61 0.59 0.57 0.56 0.54 0.54 0.56 0.59 0.59 0.59 0.60 0.60 0.61 0.62 0.59 0.55 0.53 0.51 0.54
0.12 0.10 0.09 0.08 0.09 0.10 0.10 0.13 0.15 0.15 0.17 0.24 0.23 0.19 0.23 0.31 0.39 0.42 0.41 0.40 0.39 0.39 0.40 0.42 0.47 0.50 0.49 0.48 0.45 0.44 0.44 0.45 0.46 0.49 0.51 0.52 0.53 0.52 0.48 0.45 0.43 0.41 0.42
0.09 0.09 0.05 0.06 0.07 0.07 0.07 0.08 0.09 0.10 0.13 0.16 0.17 0.15 0.20 0.25 0.31 0.35 0.41 0.47 0.46 0.45 0.42 0.40 0.42 0.46 0.51 0.51 0.45 0.41 0.41 0.42 0.42 0.45 0.48 0.48 0.46 0.41 0.38 0.37 0.36 0.37 0.37
0.05 0.05 0.03 0.03 0.03 0.04 0.04 0.05 0.07 0.08 0.10 0.12 0.12 0.14 0.17 0.24 0.27 0.30 0.36 0.43 0.47 0.47 0.43 0.40 0.42 0.46 0.48 0.49 0.46 0.39 0.36 0.35 0.35 0.37 0.42 0.44 0.41 0.37 0.34 0.34 0.33 0.34 0.37
0.04 0.05 0.03 0.03 0.03 0.03 0.04 0.05 0.04 0.05 0.06 0.06 0.09 0.13 0.16 0.22 0.24 0.27 0.31 0.36 0.42 0.46 0.44 0.43 0.42 0.43 0.43 0.44 0.40 0.31 0.27 0.27 0.26 0.28 0.33 0.36 0.35 0.32 0.29 0.30 0.31 0.32 0.35
0.02 0.02 0.02 0.02 0.02 0.03 0.04 0.05 0.04 0.04 0.04 0.05 0.08 0.10 0.11 0.15 0.19 0.21 0.24 0.30 0.35 0.39 0.39 0.38 0.39 0.36 0.33 0.33 0.31 0.25 0.24 0.24 0.25 0.25 0.27 0.29 0.28 0.28 0.28 0.29 0.28 0.30 0.33
0.02 0.02 0.02 0.03 0.04 0.05 0.05 0.05 0.05 0.06 0.06 0.06 0.07 0.07 0.08 0.11 0.14 0.16 0.17 0.19 0.24 0.28 0.32 0.32 0.31 0.29 0.25 0.22 0.23 0.24 0.23 0.21 0.21 0.22 0.26 0.30 0.30 0.29 0.30 0.30 0.28 0.31 0.36

GEFSGL_prec_meanprecacc_222.txt.gz
Total_Precipitation_Accumulation
1.06 1.04 0.99 0.93 0.91 0.90 0.87 0.82 0.80 0.76 0.73 0.69 0.64 0.61 0.59 0.57 0.60 0.68 0.72 0.71 0.71 0.71 0.71 0.73 0.76 0.80 0.92 0.91 0.94 1.01 1.16 1.34 1.43 1.21 1.04 0.99 1.00 1.03 1.04 1.01 0.88 0.76 0.71
0.95 0.92 0.84 0.80 0.78 0.77 0.74 0.68 0.62 0.64 0.67 0.65 0.60 0.55 0.50 0.50 0.56 0.59 0.60 0.58 0.63 0.65 0.65 0.64 0.65 0.72 0.83 0.87 0.91 0.93 1.01 1.16 1.27 1.27 1.12 1.00 0.95 0.99 1.03 1.02 0.83 0.65 0.60
0.90 0.92 0.87 0.80 0.73 0.70 0.69 0.64 0.59 0.61 0.60 0.57 0.55 0.53 0.51 0.48 0.49 0.49 0.48 0.52 0.56 0.59 0.58 0.58 0.60 0.67 0.74 0.79 0.84 0.87 0.91 0.95 1.08 1.11 1.00 0.92 0.85 0.84 0.99 1.03 0.95 0.87 0.58
0.85 0.92 0.93 0.87 0.80 0.72 0.69 0.71 0.65 0.60 0.57 0.53 0.51 0.50 0.47 0.41 0.41 0.42 0.40 0.44 0.53 0.52 0.49 0.51 0.55 0.56 0.60 0.68 0.72 0.82 0.91 0.99 1.04 1.05 0.95 0.86 0.85 0.87 1.07 1.15 1.09 0.93 0.72
0.79 0.81 0.79 0.75 0.75 0.69 0.66 0.67 0.63 0.59 0.55 0.54 0.50 0.49 0.45 0.40 0.38 0.39 0.37 0.38 0.49 0.51 0.51 0.50 0.49 0.47 0.48 0.53 0.59 0.68 0.83 1.00 1.06 1.11 1.04 0.93 0.91 1.05 1.11 1.05 1.03 0.89 0.73
0.73 0.75 0.69 0.63 0.62 0.60 0.60 0.54 0.51 0.54 0.57 0.56 0.57 0.54 0.48 0.41 0.43 0.42 0.34 0.38 0.46 0.51 0.55 0.53 0.48 0.44 0.40 0.40 0.42 0.49 0.64 0.83 1.00 1.13 1.09 1.02 0.97 1.07 1.14 1.08 1.14 1.09 0.97
0.74 0.70 0.67 0.67 0.64 0.59 0.57 0.55 0.53 0.55 0.58 0.59 0.59 0.57 0.54 0.47 0.43 0.39 0.32 0.37 0.46 0.58 0.63 0.62 0.51 0.43 0.49 0.49 0.45 0.43 0.49 0.59 0.82 1.08 1.19 1.11 1.04 1.13 1.26 1.24 1.23 1.22 1.13
0.73 0.68 0.63 0.63 0.64 0.62 0.63 0.63 0.60 0.56 0.59 0.64 0.64 0.58 0.58 0.52 0.48 0.42 0.39 0.44 0.47 0.55 0.58 0.57 0.61 0.60 0.53 0.51 0.46 0.49 0.58 0.68 0.76 0.84 1.04 1.06 0.95 0.98 1.14 1.19 1.18 1.14 1.06
0.67 0.61 0.58 0.57 0.60 0.61 0.62 0.62 0.59 0.61 0.63 0.68 0.67 0.67 0.67 0.64 0.57 0.52 0.53 0.55 0.52 0.51 0.48 0.46 0.52 0.56 0.48 0.47 0.51 0.61 0.69 0.74 0.64 0.73 0.82 0.94 0.99 0.92 0.92 1.00 1.19 1.32 1.30
0.60 0.53 0.51 0.54 0.56 0.55 0.56 0.61 0.63 0.65 0.68 0.68 0.70 0.71 0.69 0.64 0.51 0.45 0.48 0.50 0.51 0.48 0.50 0.52 0.48 0.43 0.43 0.44 0.52 0.67 0.77 0.76 0.82 0.99 1.16 1.26 1.23 1.13 0.97 1.04 1.28 1.44 1.45
0.50 0.50 0.52 0.55 0.59 0.56 0.58 0.64 0.66 0.64 0.68 0.68 0.64 0.60 0.57 0.48 0.38 0.34 0.34 0.36 0.42 0.44 0.51 0.58 0.56 0.46 0.43 0.41 0.48 0.61 0.72 0.77 1.04 1.38 1.44 1.36 1.27 1.21 1.10 1.06 1.15 1.29 1.43
0.53 0.54 0.56 0.57 0.47 0.46 0.61 0.65 0.61 0.64 0.68 0.62 0.57 0.55 0.50 0.42 0.30 0.23 0.23 0.26 0.32 0.41 0.59 0.59 0.56 0.51 0.43 0.42 0.49 0.66 0.74 0.94 1.25 1.47 1.40 1.21 1.08 1.02 0.96 0.94 1.00 1.08 1.21
0.67 0.67 0.61 0.60 0.58 0.60 0.63 0.59 0.58 0.58 0.55 0.45 0.42 0.44 0.41 0.40 0.34 0.22 0.20 0.23 0.30 0.36 0.52 0.56 0.54 0.52 0.51 0.64 0.72 0.84 0.93 1.13 1.35 1.36 1.22 1.09 1.00 0.93 0.85 0.87 0.89 0.94 0.94
0.74 0.69 0.64 0.65 0.68 0.65 0.58 0.47 0.45 0.41 0.39 0.38 0.36 0.36 0.34 0.32 0.25 0.20 0.20 0.25 0.31 0.35 0.45 0.58 0.68 0.72 0.75 0.85 0.96 1.07 1.17 1.26 1.24 1.14 1.01 0.94 0.87 0.86 0.84 0.83 0.85 0.86 0.90
0.73 0.69 0.64 0.56 0.54 0.55 0.43 0.32 0.31 0.28 0.25 0.30 0.31 0.29 0.29 0.27 0.19 0.20 0.21 0.24 0.32 0.38 0.44 0.63 0.84 0.92 0.98 1.04 1.04 1.10 1.16 1.13 1.10 1.05 0.97 0.87 0.82 0.83 0.84 0.83 0.87 0.82 0.85
0.65 0.62 0.53 0.42 0.37 0.33 0.30 0.30 0.25 0.20 0.22 0.23 0.26 0.24 0.19 0.18 0.16 0.17 0.21 0.26 0.35 0.45 0.51 0.74 0.94 1.00 1.03 1.06 1.02 1.03 1.05 1.01 0.95 0.93 0.93 0.88 0.84 0.83 0.84 0.87 0.89 0.87 0.88
0.56 0.50 0.37 0.27 0.25 0.25 0.27 0.37 0.39 0.30 0.23 0.22 0.21 0.20 0.19 0.18 0.17 0.18 0.23 0.29 0.36 0.44 0.53 0.73 0.94 1.11 1.13 1.04 0.96 0.94 0.97 0.97 0.94 0.91 0.88 0.88 0.83 0.80 0.82 0.84 0.83 0.81 0.82
0.41 0.33 0.25 0.23 0.19 0.18 0.18 0.26 0.40 0.44 0.39 0.36 0.29 0.22 0.20 0.20 0.21 0.21 0.24 0.28 0.39 0.46 0.58 0.74 0.88 0.97 1.00 1.00 0.93 0.88 0.89 0.91 0.92 0.88 0.84 0.83 0.80 0.78 0.75 0.78 0.79 0.72 0.70
0.29 0.25 0.21 0.18 0.16 0.15 0.15 0.20 0.28 0.31 0.36 0.39 0.37 0.29 0.24 0.24 0.28 0.29 0.28 0.31 0.41 0.48 0.57 0.67 0.74 0.76 0.74 0.76 0.75 0.74 0.77 0.82 0.81 0.77 0.76 0.77 0.76 0.74 0.72 0.68 0.65 0.58 0.59
0.22 0.16 0.14 0.12 0.12 0.13 0.13 0.18 0.24 0.25 0.27 0.33 0.35 0.31 0.28 0.33 0.40 0.40 0.36 0.34 0.36 0.41 0.49 0.57 0.62 0.60 0.58 0.57 0.56 0.56 0.57 0.60 0.60 0.60 0.61 0.61 0.63 0.63 0.61 0.57 0.55 0.54 0.57
0.14 0.13 0.10 0.09 0.10 0.11 0.12 0.17 0.21 0.20 0.20 0.26 0.26 0.23 0.26 0.32 0.41 0.44 0.44 0.43 0.43 0.42 0.43 0.44 0.49 0.52 0.52 0.50 0.47 0.45 0.45 0.46 0.47 0.50 0.52 0.54 0.55 0.55 0.50 0.48 0.47 0.44 0.46
0.12 0.12 0.07 0.07 0.08 0.08 0.09 0.12 0.14 0.14 0.16 0.19 0.19 0.17 0.22 0.26 0.33 0.37 0.43 0.49 0.49 0.47 0.44 0.42 0.44 0.48 0.53 0.53 0.46 0.43 0.43 0.43 0.43 0.47 0.49 0.50 0.48 0.44 0.41 0.40 0.38 0.40 0.41
0.07 0.08 0.05 0.04 0.04 0.05 0.07 0.09 0.11 0.11 0.13 0.14 0.14 0.16 0.19 0.25 0.28 0.31 0.37 0.44 0.48 0.48 0.44 0.41 0.44 0.47 0.49 0.51 0.47 0.40 0.37 0.36 0.36 0.39 0.44 0.46 0.44 0.40 0.37 0.37 0.36 0.38 0.41
0.06 0.07 0.04 0.04 0.04 0.04 0.05 0.07 0.07 0.07 0.08 0.09 0.11 0.15 0.18 0.23 0.25 0.28 0.32 0.37 0.43 0.46 0.44 0.43 0.43 0.43 0.43 0.44 0.40 0.31 0.28 0.28 0.27 0.29 0.34 0.39 0.37 0.34 0.31 0.33 0.34 0.36 0.38
0.04 0.05 0.03 0.03 0.03 0.04 0.05 0.06 0.05 0.05 0.05 0.06 0.09 0.11 0.12 0.15 0.20 0.21 0.25 0.31 0.36 0.40 0.39 0.38 0.39 0.36 0.33 0.33 0.31 0.26 0.24 0.25 0.25 0.26 0.28 0.31 0.30 0.30 0.31 0.32 0.32 0.33 0.35
0.03 0.04 0.03 0.04 0.06 0.07 0.06 0.06 0.06 0.06 0.06 0.07 0.08 0.08 0.09 0.12 0.15 0.17 0.18 0.20 0.24 0.29 0.32 0.32 0.31 0.29 0.25 0.22 0.23 0.24 0.23 0.22 0.21 0.23 0.27 0.32 0.31 0.31 0.33 0.33 0.32 0.35 0.38

GEFSGL_prec_meanprecacc_228.txt.gz
Total_Precipitation_Accumulation
1.09 1.07 1.02 0.98 0.96 0.95 0.92 0.87 0.85 0.83 0.81 0.76 0.70 0.66 0.63 0.62 0.66 0.75 0.79 0.79 0.80 0.78 0.76 0.76 0.79 0.83 0.94 0.93 0.96 1.02 1.17 1.36 1.46 1.24 1.06 1.01 1.03 1.05 1.06 1.03 0.90 0.77 0.73
0.98 0.95 0.87 0.82 0.82 0.83 0.79 0.72 0.66 0.67 0.69 0.68 0.63 0.58 0.52 0.54 0.61 0.64 0.65 0.63 0.68 0.69 0.68 0.68 0.68 0.74 0.84 0.88 0.92 0.94 1.02 1.17 1.29 1.30 1.15 1.03 0.99 1.02 1.05 1.04 0.84 0.67 0.63
0.92 0.93 0.89 0.81 0.76 0.73 0.72 0.66 0.61 0.63 0.63 0.60 0.58 0.55 0.53 0.51 0.53 0.53 0.52 0.55 0.59 0.62 0.61 0.60 0.63 0.69 0.75 0.80 0.86 0.89 0.93 0.97 1.10 1.14 1.03 0.96 0.89 0.88 1.02 1.06 0.97 0.89 0.61
0.86 0.94 0.94 0.89 0.81 0.74 0.71 0.72 0.67 0.63 0.60 0.56 0.53 0.52 0.48 0.43 0.45 0.47 0.44 0.47 0.55 0.54 0.51 0.53 0.57 0.59 0.62 0.70 0.74 0.84 0.93 1.01 1.07 1.07 0.98 0.88 0.88 0.90 1.09 1.17 1.10 0.95 0.74
0.80 0.82 0.79 0.76 0.76 0.71 0.68 0.69 0.66 0.62 0.58 0.56 0.52 0.50 0.46 0.41 0.40 0.43 0.41 0.41 0.51 0.52 0.52 0.52 0.51 0.49 0.51 0.55 0.60 0.69 0.84 1.01 1.08 1.12 1.06 0.95 0.92 1.06 1.13 1.06 1.04 0.91 0.76
0.74 0.75 0.70 0.64 0.64 0.62 0.62 0.57 0.53 0.56 0.59 0.58 0.58 0.56 0.49 0.43 0.47 0.46 0.38 0.41 0.48 0.52 0.56 0.54 0.50 0.45 0.41 0.41 0.44 0.51 0.65 0.84 1.00 1.14 1.10 1.03 0.98 1.08 1.16 1.10 1.15 1.12 1.00
0.75 0.71 0.69 0.68 0.65 0.60 0.58 0.56 0.54 0.56 0.60 0.61 0.61 0.59 0.56 0.49 0.48 0.42 0.35 0.40 0.49 0.59 0.65 0.63 0.52 0.44 0.50 0.51 0.47 0.44 0.50 0.60 0.83 1.08 1.20 1.11 1.05 1.15 1.28 1.27 1.26 1.24 1.15
0.74 0.68 0.64 0.64 0.65 0.63 0.65 0.66 0.62 0.58 0.62 0.67 0.67 0.61 0.60 0.55 0.52 0.46 0.42 0.46 0.49 0.56 0.60 0.58 0.63 0.63 0.55 0.52 0.47 0.50 0.59 0.68 0.76 0.84 1.04 1.07 0.96 0.99 1.15 1.22 1.22 1.18 1.10
0.69 0.62 0.59 0.58 0.62 0.63 0.64 0.65 0.62 0.63 0.66 0.70 0.69 0.69 0.69 0.66 0.59 0.54 0.55 0.57 0.53 0.51 0.49 0.47 0.53 0.57 0.50 0.48 0.52 0.62 0.69 0.75 0.64 0.74 0.83 0.95 1.00 0.93 0.93 1.01 1.22 1.36 1.35
0.61 0.55 0.53 0.56 0.58 0.57 0.59 0.63 0.64 0.66 0.69 0.69 0.71 0.73 0.71 0.66 0.53 0.47 0.50 0.51 0.51 0.48 0.50 0.53 0.49 0.44 0.44 0.45 0.53 0.68 0.78 0.77 0.82 0.99 1.17 1.27 1.23 1.14 0.98 1.05 1.30 1.47 1.49
0.51 0.52 0.55 0.58 0.62 0.59 0.61 0.67 0.68 0.65 0.69 0.69 0.65 0.61 0.59 0.50 0.41 0.36 0.36 0.37 0.43 0.46 0.52 0.59 0.57 0.47 0.44 0.42 0.50 0.62 0.73 0.78 1.04 1.38 1.45 1.37 1.28 1.21 1.11 1.07 1.17 1.31 1.45
0.54 0.55 0.58 0.59 0.50 0.48 0.62 0.65 0.62 0.65 0.68 0.63 0.58 0.56 0.51 0.44 0.32 0.26 0.25 0.28 0.33 0.42 0.60 0.60 0.56 0.51 0.43 0.42 0.50 0.67 0.74 0.94 1.26 1.48 1.40 1.21 1.09 1.02 0.97 0.95 1.01 1.09 1.22
0.69 0.68 0.63 0.61 0.60 0.62 0.64 0.60 0.58 0.58 0.55 0.45 0.43 0.45 0.42 0.40 0.35 0.24 0.21 0.24 0.30 0.37 0.52 0.56 0.54 0.53 0.52 0.64 0.73 0.84 0.94 1.14 1.37 1.38 1.23 1.10 1.01 0.94 0.86 0.88 0.90 0.95 0.95
0.76 0.70 0.65 0.66 0.70 0.67 0.59 0.48 0.45 0.41 0.40 0.40 0.37 0.37 0.35 0.33 0.26 0.20 0.20 0.26 0.32 0.36 0.46 0.59 0.68 0.73 0.76 0.86 0.96 1.07 1.17 1.26 1.24 1.15 1.02 0.95 0.88 0.87 0.85 0.85 0.88 0.89 0.93
0.76 0.71 0.65 0.58 0.56 0.56 0.44 0.32 0.31 0.29 0.26 0.32 0.34 0.31 0.30 0.27 0.20 0.20 0.21 0.24 0.32 0.38 0.44 0.63 0.85 0.93 0.98 1.04 1.05 1.10 1.16 1.13 1.10 1.05 0.97 0.88 0.83 0.84 0.85 0.84 0.89 0.85 0.87
0.67 0.64 0.55 0.45 0.39 0.34 0.31 0.31 0.25 0.21 0.22 0.25 0.28 0.26 0.20 0.19 0.17 0.17 0.21 0.27 0.35 0.45 0.52 0.74 0.94 1.01 1.04 1.06 1.02 1.03 1.06 1.02 0.96 0.93 0.94 0.89 0.85 0.84 0.86 0.89 0.92 0.89 0.90
0.57 0.52 0.39 0.30 0.27 0.26 0.28 0.37 0.40 0.30 0.23 0.22 0.21 0.22 0.20 0.19 0.18 0.18 0.23 0.30 0.37 0.45 0.54 0.74 0.94 1.11 1.14 1.04 0.96 0.94 0.97 0.98 0.95 0.92 0.89 0.89 0.84 0.81 0.84 0.86 0.86 0.84 0.85
0.42 0.33 0.27 0.25 0.21 0.19 0.19 0.27 0.41 0.44 0.40 0.36 0.30 0.24 0.22 0.21 0.23 0.23 0.26 0.30 0.40 0.47 0.59 0.75 0.89 0.98 1.01 1.01 0.93 0.89 0.89 0.92 0.93 0.90 0.86 0.84 0.82 0.79 0.77 0.80 0.81 0.75 0.72
0.31 0.26 0.23 0.19 0.17 0.16 0.16 0.20 0.28 0.31 0.36 0.40 0.39 0.31 0.26 0.26 0.30 0.30 0.28 0.32 0.42 0.49 0.59 0.68 0.75 0.77 0.75 0.77 0.76 0.75 0.78 0.82 0.82 0.79 0.78 0.78 0.78 0.76 0.74 0.70 0.67 0.61 0.62
0.23 0.17 0.16 0.12 0.12 0.13 0.14 0.19 0.25 0.26 0.29 0.35 0.37 0.33 0.29 0.34 0.41 0.41 0.37 0.35 0.37 0.42 0.50 0.58 0.63 0.61 0.59 0.58 0.57 0.57 0.59 0.61 0.61 0.61 0.62 0.62 0.64 0.65 0.63 0.59 0.57 0.56 0.59
0.15 0.14 0.12 0.10 0.11 0.12 0.12 0.18 0.23 0.22 0.22 0.28 0.28 0.25 0.28 0.34 0.43 0.46 0.47 0.45 0.44 0.44 0.46 0.46 0.50 0.53 0.52 0.51 0.49 0.47 0.47 0.48 0.48 0.51 0.53 0.56 0.57 0.57 0.52 0.49 0.48 0.46 0.48
0.13 0.14 0.08 0.08 0.09 0.10 0.11 0.14 0.17 0.17 0.19 0.20 0.21 0.19 0.24 0.28 0.35 0.39 0.45 0.51 0.51 0.50 0.46 0.43 0.45 0.49 0.54 0.54 0.48 0.44 0.44 0.44 0.44 0.47 0.51 0.52 0.51 0.46 0.42 0.41 0.40 0.42 0.43
0.09 0.11 0.07 0.06 0.06 0.09 0.12 0.15 0.16 0.14 0.15 0.17 0.16 0.17 0.20 0.27 0.30 0.33 0.39 0.46 0.50 0.49 0.45 0.42 0.44 0.48 0.50 0.51 0.48 0.41 0.38 0.37 0.37 0.40 0.46 0.49 0.47 0.43 0.40 0.40 0.38 0.40 0.43
0.07 0.10 0.07 0.06 0.07 0.07 0.10 0.12 0.11 0.11 0.11 0.12 0.13 0.16 0.19 0.25 0.27 0.30 0.34 0.39 0.44 0.47 0.46 0.44 0.44 0.44 0.44 0.45 0.41 0.32 0.28 0.28 0.27 0.29 0.36 0.41 0.41 0.38 0.35 0.36 0.36 0.37 0.39
0.06 0.07 0.05 0.05 0.06 0.08 0.09 0.10 0.08 0.08 0.08 0.09 0.11 0.12 0.14 0.17 0.21 0.23 0.26 0.31 0.36 0.40 0.40 0.39 0.39 0.37 0.35 0.34 0.32 0.26 0.25 0.25 0.26 0.26 0.29 0.33 0.34 0.35 0.35 0.35 0.34 0.34 0.36
0.04 0.06 0.05 0.06 0.09 0.10 0.09 0.09 0.08 0.08 0.07 0.08 0.08 0.09 0.10 0.12 0.16 0.17 0.19 0.21 0.25 0.29 0.33 0.33 0.32 0.30 0.26 0.23 0.23 0.24 0.24 0.22 0.22 0.24 0.28 0.33 0.34 0.35 0.36 0.36 0.34 0.36 0.39

GEFSGL_prec_meanprecacc_234.txt.gz
Total_Precipitation_Accumulation
1.14 1.11 1.06 1.01 0.99 0.97 0.93 0.89 0.87 0.85 0.83 0.78 0.72 0.69 0.67 0.65 0.69 0.77 0.82 0.82 0.83 0.82 0.81 0.81 0.84 0.89 0.99 0.99 1.02 1.07 1.22 1.40 1.50 1.28 1.11 1.04 1.06 1.08 1.09 1.06 0.93 0.80 0.76
1.00 0.97 0.89 0.84 0.83 0.86 0.82 0.74 0.69 0.70 0.72 0.70 0.65 0.61 0.56 0.57 0.64 0.67 0.68 0.66 0.71 0.73 0.71 0.71 0.72 0.79 0.88 0.93 0.97 0.98 1.07 1.21 1.33 1.35 1.20 1.09 1.04 1.06 1.09 1.07 0.87 0.69 0.66
0.95 0.95 0.90 0.83 0.78 0.75 0.73 0.67 0.63 0.65 0.65 0.63 0.60 0.58 0.56 0.54 0.57 0.57 0.55 0.57 0.62 0.66 0.65 0.64 0.66 0.73 0.79 0.84 0.90 0.93 0.98 1.01 1.13 1.17 1.07 1.01 0.96 0.94 1.07 1.09 1.01 0.93 0.64
0.89 0.96 0.96 0.91 0.83 0.76 0.73 0.75 0.69 0.65 0.61 0.57 0.55 0.54 0.51 0.47 0.50 0.51 0.47 0.51 0.60 0.58 0.55 0.58 0.63 0.64 0.66 0.74 0.78 0.88 0.97 1.05 1.09 1.09 1.01 0.92 0.94 0.98 1.19 1.25 1.16 1.00 0.79
0.83 0.85 0.81 0.79 0.78 0.72 0.69 0.71 0.68 0.63 0.59 0.57 0.53 0.52 0.48 0.44 0.44 0.47 0.44 0.45 0.56 0.57 0.57 0.58 0.57 0.54 0.55 0.60 0.64 0.73 0.88 1.04 1.11 1.15 1.08 0.98 0.96 1.11 1.19 1.15 1.12 0.98 0.82
0.78 0.78 0.72 0.66 0.65 0.64 0.64 0.59 0.55 0.57 0.61 0.60 0.61 0.59 0.52 0.46 0.51 0.51 0.43 0.46 0.53 0.58 0.61 0.61 0.57 0.51 0.47 0.47 0.49 0.55 0.69 0.87 1.04 1.17 1.12 1.06 1.01 1.11 1.19 1.14 1.20 1.18 1.06
0.77 0.73 0.70 0.70 0.68 0.63 0.61 0.59 0.57 0.58 0.62 0.63 0.63 0.63 0.60 0.55 0.56 0.52 0.47 0.48 0.55 0.65 0.70 0.69 0.58 0.50 0.56 0.56 0.52 0.49 0.54 0.63 0.86 1.11 1.23 1.14 1.08 1.17 1.31 1.30 1.30 1.30 1.21
0.75 0.69 0.65 0.66 0.69 0.68 0.71 0.72 0.67 0.62 0.64 0.70 0.69 0.64 0.65 0.63 0.60 0.55 0.51 0.51 0.52 0.60 0.65 0.63 0.67 0.66 0.58 0.56 0.50 0.52 0.61 0.70 0.77 0.86 1.07 1.09 0.98 1.01 1.18 1.25 1.26 1.23 1.15
0.70 0.63 0.60 0.59 0.64 0.66 0.67 0.69 0.67 0.67 0.68 0.72 0.71 0.71 0.72 0.69 0.61 0.56 0.57 0.59 0.55 0.54 0.51 0.50 0.56 0.59 0.52 0.50 0.54 0.64 0.72 0.77 0.65 0.75 0.84 0.97 1.02 0.95 0.95 1.04 1.26 1.41 1.40
0.62 0.56 0.54 0.56 0.60 0.60 0.62 0.65 0.66 0.68 0.70 0.70 0.72 0.75 0.72 0.67 0.54 0.47 0.50 0.52 0.52 0.50 0.52 0.55 0.52 0.46 0.45 0.47 0.55 0.70 0.80 0.79 0.84 1.00 1.17 1.27 1.25 1.15 0.99 1.08 1.33 1.51 1.55
0.52 0.53 0.56 0.59 0.63 0.60 0.63 0.68 0.69 0.67 0.70 0.70 0.66 0.62 0.60 0.51 0.41 0.36 0.36 0.38 0.44 0.47 0.54 0.61 0.59 0.48 0.45 0.43 0.51 0.64 0.74 0.79 1.06 1.40 1.46 1.38 1.30 1.23 1.13 1.10 1.21 1.36 1.51
0.55 0.57 0.58 0.60 0.51 0.48 0.63 0.67 0.63 0.66 0.69 0.64 0.59 0.57 0.51 0.44 0.33 0.27 0.27 0.30 0.35 0.44 0.61 0.62 0.57 0.52 0.44 0.43 0.50 0.67 0.75 0.95 1.26 1.49 1.41 1.22 1.10 1.04 0.99 0.97 1.04 1.13 1.28
0.69 0.69 0.63 0.62 0.60 0.62 0.65 0.61 0.59 0.60 0.56 0.46 0.43 0.45 0.42 0.41 0.36 0.25 0.23 0.26 0.33 0.38 0.53 0.57 0.55 0.53 0.52 0.64 0.73 0.85 0.95 1.15 1.38 1.39 1.24 1.11 1.03 0.96 0.88 0.90 0.93 0.99 0.99
0.76 0.71 0.66 0.67 0.71 0.67 0.60 0.49 0.46 0.43 0.41 0.40 0.38 0.37 0.35 0.34 0.27 0.22 0.22 0.27 0.33 0.37 0.47 0.60 0.69 0.74 0.76 0.86 0.96 1.08 1.17 1.27 1.25 1.16 1.03 0.97 0.90 0.89 0.88 0.88 0.92 0.93 0.98
0.77 0.72 0.66 0.59 0.57 0.57 0.45 0.33 0.32 0.30 0.27 0.32 0.34 0.31 0.31 0.28 0.21 0.21 0.22 0.24 0.32 0.39 0.44 0.63 0.85 0.93 0.99 1.04 1.05 1.11 1.17 1.13 1.11 1.06 0.98 0.89 0.85 0.86 0.88 0.87 0.92 0.89 0.93
0.69 0.65 0.56 0.45 0.40 0.36 0.32 0.32 0.26 0.21 0.23 0.25 0.29 0.26 0.20 0.19 0.17 0.18 0.22 0.27 0.35 0.45 0.52 0.75 0.95 1.02 1.05 1.07 1.03 1.03 1.06 1.02 0.96 0.94 0.95 0.91 0.88 0.87 0.89 0.92 0.96 0.95 0.96
0.59 0.53 0.40 0.31 0.28 0.27 0.28 0.38 0.40 0.31 0.24 0.24 0.22 0.22 0.20 0.20 0.18 0.19 0.24 0.31 0.37 0.45 0.55 0.75 0.95 1.12 1.14 1.05 0.96 0.94 0.98 0.98 0.95 0.93 0.91 0.91 0.87 0.84 0.87 0.90 0.90 0.89 0.90
0.43 0.34 0.27 0.25 0.21 0.20 0.20 0.27 0.41 0.45 0.41 0.38 0.31 0.24 0.22 0.22 0.23 0.23 0.26 0.30 0.41 0.48 0.60 0.76 0.90 0.98 1.02 1.01 0.94 0.90 0.91 0.93 0.94 0.91 0.88 0.87 0.84 0.82 0.80 0.83 0.84 0.78 0.76
0.32 0.26 0.23 0.19 0.17 0.17 0.17 0.21 0.29 0.32 0.37 0.41 0.40 0.32 0.27 0.26 0.30 0.30 0.28 0.32 0.42 0.50 0.60 0.69 0.76 0.77 0.76 0.78 0.77 0.76 0.80 0.84 0.83 0.80 0.80 0.81 0.81 0.79 0.77 0.74 0.70 0.63 0.64
0.24 0.18 0.16 0.13 0.13 0.14 0.14 0.19 0.26 0.27 0.30 0.36 0.38 0.34 0.30 0.35 0.42 0.41 0.37 0.36 0.37 0.42 0.51 0.60 0.65 0.62 0.60 0.59 0.58 0.59 0.61 0.63 0.62 0.62 0.64 0.66 0.68 0.68 0.66 0.62 0.60 0.59 0.63
0.15 0.15 0.12 0.10 0.11 0.13 0.14 0.18 0.23 0.24 0.24 0.30 0.30 0.26 0.28 0.34 0.44 0.47 0.47 0.46 0.44 0.45 0.46 0.47 0.52 0.54 0.54 0.53 0.51 0.49 0.49 0.50 0.50 0.52 0.55 0.59 0.61 0.60 0.55 0.52 0.51 0.49 0.51
0.13 0.14 0.09 0.08 0.10 0.11 0.13 0.15 0.18 0.18 0.19 0.21 0.21 0.19 0.24 0.28 0.35 0.39 0.46 0.52 0.51 0.50 0.47 0.45 0.46 0.50 0.54 0.56 0.50 0.46 0.45 0.45 0.45 0.49 0.53 0.56 0.55 0.50 0.45 0.44 0.42 0.44 0.46
0.09 0.11 0.08 0.06 0.08 0.11 0.14 0.16 0.17 0.15 0.17 0.18 0.17 0.18 0.21 0.27 0.30 0.34 0.40 0.47 0.50 0.50 0.47 0.43 0.46 0.50 0.51 0.53 0.50 0.44 0.40 0.38 0.38 0.41 0.48 0.52 0.51 0.46 0.42 0.42 0.41 0.43 0.45
0.08 0.10 0.08 0.07 0.08 0.10 0.13 0.14 0.13 0.13 0.14 0.13 0.14 0.17 0.20 0.25 0.28 0.31 0.35 0.40 0.45 0.49 0.47 0.46 0.45 0.46 0.46 0.47 0.43 0.33 0.29 0.29 0.28 0.30 0.37 0.44 0.44 0.41 0.38 0.39 0.39 0.39 0.41
0.07 0.08 0.07 0.07 0.08 0.10 0.11 0.12 0.11 0.10 0.10 0.10 0.12 0.14 0.15 0.18 0.22 0.24 0.27 0.32 0.37 0.42 0.42 0.41 0.41 0.38 0.36 0.35 0.33 0.27 0.26 0.26 0.26 0.27 0.31 0.35 0.35 0.36 0.37 0.38 0.36 0.36 0.38
0.05 0.07 0.07 0.08 0.12 0.13 0.12 0.11 0.10 0.09 0.10 0.11 0.11 0.11 0.11 0.14 0.17 0.19 0.19 0.22 0.26 0.31 0.34 0.34 0.33 0.31 0.27 0.23 0.24 0.25 0.24 0.22 0.22 0.25 0.29 0.35 0.36 0.36 0.38 0.38 0.36 0.38 0.41

GEFSGL_prec_meanprecacc_240.txt.gz
Total_Precipitation_Accumulation
1.18 1.16 1.11 1.08 1.07 1.06 1.01 0.95 0.94 0.92 0.90 0.84 0.77 0.73 0.71 0.70 0.75 0.85 0.90 0.89 0.90 0.89 0.86 0.86 0.88 0.93 1.03 1.02 1.05 1.12 1.28 1.46 1.55 1.32 1.15 1.09 1.12 1.13 1.12 1.09 0.95 0.83 0.78
1.05 1.03 0.95 0.90 0.90 0.92 0.88 0.81 0.76 0.77 0.77 0.74 0.70 0.67 0.61 0.64 0.72 0.75 0.76 0.74 0.77 0.77 0.75 0.75 0.75 0.82 0.92 0.96 1.00 1.02 1.12 1.27 1.38 1.38 1.23 1.12 1.10 1.12 1.13 1.12 0.90 0.72 0.68
1.00 1.01 0.98 0.90 0.86 0.82 0.79 0.72 0.68 0.71 0.71 0.68 0.66 0.66 0.65 0.63 0.66 0.65 0.61 0.63 0.67 0.70 0.68 0.67 0.69 0.77 0.82 0.87 0.93 0.97 1.02 1.05 1.18 1.22 1.11 1.05 1.00 0.99 1.12 1.13 1.04 0.97 0.67
0.92 1.01 1.03 0.97 0.89 0.81 0.78 0.80 0.73 0.69 0.66 0.62 0.61 0.61 0.58 0.55 0.57 0.57 0.52 0.56 0.64 0.62 0.59 0.62 0.67 0.66 0.68 0.76 0.80 0.91 1.01 1.09 1.14 1.14 1.05 0.96 0.98 1.03 1.24 1.31 1.21 1.05 0.84
0.86 0.90 0.88 0.84 0.83 0.77 0.74 0.77 0.72 0.68 0.64 0.63 0.60 0.58 0.54 0.51 0.50 0.51 0.48 0.48 0.59 0.61 0.61 0.62 0.61 0.57 0.58 0.62 0.65 0.76 0.92 1.09 1.16 1.20 1.13 1.02 1.00 1.15 1.24 1.20 1.17 1.04 0.88
0.82 0.84 0.76 0.70 0.69 0.67 0.67 0.64 0.60 0.62 0.67 0.65 0.66 0.63 0.56 0.50 0.55 0.53 0.45 0.48 0.56 0.61 0.64 0.64 0.60 0.54 0.50 0.51 0.51 0.58 0.73 0.92 1.09 1.22 1.17 1.10 1.05 1.15 1.24 1.19 1.25 1.25 1.13
0.80 0.77 0.73 0.72 0.70 0.66 0.63 0.63 0.61 0.63 0.66 0.68 0.67 0.66 0.63 0.58 0.59 0.54 0.49 0.51 0.59 0.70 0.73 0.72 0.62 0.52 0.59 0.61 0.58 0.55 0.59 0.68 0.91 1.18 1.29 1.19 1.12 1.21 1.34 1.34 1.35 1.37 1.27
0.78 0.72 0.67 0.68 0.71 0.71 0.73 0.75 0.72 0.67 0.70 0.76 0.76 0.70 0.70 0.65 0.62 0.58 0.54 0.54 0.57 0.65 0.69 0.68 0.72 0.71 0.63 0.61 0.56 0.61 0.70 0.77 0.82 0.91 1.12 1.14 1.02 1.05 1.21 1.28 1.31 1.29 1.22
0.73 0.66 0.61 0.60 0.65 0.67 0.69 0.72 0.72 0.73 0.75 0.79 0.77 0.75 0.76 0.72 0.62 0.58 0.60 0.62 0.58 0.57 0.55 0.55 0.62 0.65 0.57 0.55 0.59 0.70 0.78 0.83 0.70 0.79 0.88 1.00 1.05 0.98 0.98 1.08 1.30 1.46 1.47
0.65 0.57 0.54 0.57 0.61 0.61 0.63 0.68 0.71 0.73 0.74 0.73 0.75 0.78 0.75 0.70 0.56 0.49 0.53 0.55 0.55 0.53 0.56 0.60 0.58 0.52 0.50 0.50 0.59 0.75 0.86 0.84 0.88 1.03 1.20 1.31 1.28 1.18 1.03 1.12 1.38 1.57 1.61
0.53 0.54 0.57 0.61 0.65 0.61 0.64 0.70 0.72 0.70 0.74 0.72 0.69 0.67 0.64 0.53 0.43 0.37 0.38 0.41 0.48 0.51 0.58 0.64 0.62 0.52 0.48 0.45 0.53 0.68 0.79 0.84 1.11 1.44 1.50 1.41 1.33 1.27 1.16 1.14 1.26 1.42 1.58
0.57 0.58 0.59 0.61 0.51 0.49 0.65 0.68 0.65 0.70 0.74 0.66 0.62 0.60 0.54 0.46 0.34 0.27 0.28 0.31 0.38 0.47 0.65 0.64 0.59 0.53 0.46 0.44 0.52 0.69 0.76 0.96 1.30 1.52 1.45 1.26 1.13 1.07 1.02 1.01 1.08 1.18 1.34
0.71 0.70 0.64 0.63 0.60 0.63 0.66 0.62 0.60 0.62 0.59 0.48 0.44 0.46 0.43 0.42 0.37 0.26 0.24 0.27 0.34 0.40 0.57 0.60 0.57 0.55 0.54 0.67 0.75 0.86 0.96 1.16 1.39 1.40 1.26 1.13 1.05 0.98 0.91 0.93 0.95 1.02 1.02
0.78 0.72 0.67 0.68 0.71 0.68 0.61 0.50 0.47 0.44 0.42 0.42 0.39 0.38 0.36 0.35 0.28 0.23 0.23 0.28 0.34 0.39 0.50 0.63 0.73 0.77 0.80 0.90 0.99 1.09 1.19 1.28 1.26 1.17 1.05 0.99 0.92 0.92 0.90 0.90 0.94 0.96 1.01
0.80 0.74 0.67 0.60 0.58 0.58 0.46 0.34 0.34 0.32 0.29 0.35 0.37 0.34 0.33 0.30 0.22 0.22 0.22 0.25 0.33 0.40 0.47 0.67 0.88 0.96 1.02 1.07 1.07 1.12 1.17 1.14 1.12 1.07 1.00 0.92 0.87 0.88 0.90 0.89 0.95 0.92 0.96
0.72 0.68 0.58 0.47 0.42 0.37 0.33 0.33 0.27 0.23 0.25 0.28 0.31 0.29 0.22 0.21 0.18 0.18 0.22 0.28 0.36 0.46 0.54 0.77 0.97 1.04 1.06 1.08 1.04 1.04 1.07 1.04 0.98 0.96 0.97 0.93 0.90 0.89 0.91 0.94 0.99 0.98 1.00
0.62 0.56 0.42 0.32 0.29 0.28 0.29 0.38 0.41 0.32 0.26 0.26 0.25 0.24 0.22 0.21 0.19 0.19 0.24 0.32 0.38 0.46 0.56 0.77 0.96 1.13 1.16 1.06 0.98 0.96 1.00 1.00 0.96 0.94 0.93 0.92 0.89 0.86 0.90 0.92 0.93 0.92 0.93
0.44 0.36 0.29 0.26 0.22 0.21 0.20 0.28 0.42 0.46 0.42 0.40 0.34 0.26 0.24 0.23 0.24 0.23 0.26 0.30 0.41 0.48 0.61 0.77 0.91 1.00 1.04 1.04 0.96 0.92 0.92 0.94 0.95 0.92 0.89 0.88 0.86 0.84 0.83 0.86 0.87 0.81 0.79
0.33 0.27 0.24 0.20 0.18 0.17 0.18 0.22 0.30 0.34 0.39 0.43 0.41 0.33 0.28 0.28 0.31 0.31 0.28 0.32 0.43 0.51 0.61 0.70 0.78 0.79 0.79 0.81 0.79 0.78 0.81 0.84 0.84 0.81 0.81 0.83 0.83 0.81 0.80 0.77 0.73 0.65 0.68
0.24 0.18 0.17 0.13 0.13 0.14 0.15 0.20 0.27 0.28 0.32 0.38 0.39 0.35 0.31 0.36 0.43 0.42 0.38 0.36 0.38 0.43 0.52 0.61 0.66 0.64 0.63 0.63 0.61 0.60 0.62 0.64 0.63 0.63 0.65 0.67 0.70 0.71 0.69 0.65 0.63 0.62 0.67
0.15 0.15 0.13 0.10 0.11 0.13 0.14 0.19 0.24 0.25 0.25 0.31 0.31 0.27 0.29 0.35 0.45 0.49 0.50 0.48 0.46 0.45 0.47 0.48 0.54 0.56 0.56 0.55 0.53 0.50 0.50 0.51 0.50 0.52 0.56 0.61 0.63 0.63 0.58 0.56 0.55 0.54 0.57
0.14 0.15 0.09 0.08 0.10 0.12 0.14 0.16 0.18 0.19 0.20 0.22 0.22 0.19 0.26 0.30 0.37 0.41 0.48 0.55 0.53 0.51 0.48 0.46 0.48 0.52 0.56 0.57 0.50 0.47 0.47 0.47 0.46 0.50 0.54 0.57 0.57 0.53 0.49 0.48 0.48 0.51 0.53
0.10 0.12 0.09 0.07 0.09 0.13 0.15 0.17 0.18 0.17 0.18 0.18 0.17 0.18 0.22 0.29 0.32 0.36 0.42 0.49 0.53 0.51 0.47 0.44 0.48 0.51 0.53 0.55 0.52 0.44 0.41 0.39 0.39 0.42 0.49 0.53 0.52 0.48 0.45 0.46 0.46 0.48 0.51
0.09 0.11 0.09 0.08 0.09 0.11 0.14 0.15 0.14 0.14 0.14 0.14 0.15 0.17 0.21 0.27 0.30 0.34 0.38 0.43 0.47 0.50 0.48 0.46 0.46 0.46 0.46 0.48 0.44 0.34 0.30 0.29 0.29 0.31 0.38 0.45 0.45 0.42 0.40 0.42 0.42 0.43 0.44
0.07 0.09 0.08 0.08 0.09 0.11 0.13 0.14 0.12 0.11 0.10 0.11 0.13 0.15 0.17 0.20 0.24 0.26 0.30 0.34 0.39 0.44 0.44 0.42 0.42 0.39 0.36 0.35 0.33 0.27 0.26 0.27 0.28 0.29 0.33 0.37 0.37 0.38 0.40 0.41 0.38 0.39 0.40
0.06 0.09 0.08 0.09 0.13 0.14 0.14 0.12 0.11 0.10 0.11 0.12 0.13 0.13 0.14 0.17 0.20 0.22 0.24 0.26 0.31 0.36 0.39 0.38 0.35 0.32 0.28 0.25 0.26 0.26 0.26 0.24 0.24 0.26 0.31 0.37 0.38 0.39 0.41 0.40 0.37 0.39 0.43

GEFSGL_prec_meanprecacc_246.txt.gz
Total_Precipitation_Accumulation
1.25 1.22 1.17 1.13 1.12 1.11 1.05 1.00 0.99 0.99 0.96 0.89 0.81 0.75 0.73 0.73 0.79 0.90 0.96 0.95 0.97 0.96 0.93 0.93 0.95 0.99 1.09 1.08 1.11 1.16 1.31 1.50 1.58 1.36 1.18 1.14 1.18 1.20 1.19 1.14 0.98 0.86 0.81
1.11 1.11 1.01 0.94 0.94 0.98 0.95 0.88 0.82 0.82 0.80 0.77 0.73 0.70 0.65 0.67 0.76 0.79 0.80 0.80 0.85 0.84 0.82 0.80 0.79 0.86 0.96 0.99 1.03 1.05 1.14 1.29 1.40 1.40 1.25 1.15 1.14 1.17 1.19 1.18 0.95 0.74 0.70
1.04 1.07 1.03 0.96 0.91 0.87 0.84 0.76 0.70 0.72 0.72 0.69 0.68 0.68 0.68 0.66 0.70 0.69 0.66 0.68 0.74 0.78 0.76 0.73 0.74 0.80 0.84 0.88 0.94 0.98 1.04 1.06 1.20 1.23 1.12 1.06 1.03 1.04 1.17 1.18 1.09 1.00 0.69
0.96 1.05 1.07 1.00 0.92 0.83 0.80 0.81 0.75 0.70 0.67 0.65 0.64 0.63 0.62 0.58 0.61 0.63 0.59 0.64 0.72 0.70 0.65 0.65 0.69 0.68 0.69 0.77 0.81 0.93 1.02 1.10 1.16 1.16 1.07 0.98 1.00 1.06 1.29 1.35 1.25 1.09 0.87
0.88 0.93 0.90 0.86 0.85 0.78 0.74 0.77 0.73 0.70 0.66 0.65 0.61 0.60 0.57 0.53 0.54 0.56 0.52 0.50 0.61 0.63 0.63 0.64 0.62 0.58 0.58 0.63 0.66 0.77 0.93 1.10 1.17 1.22 1.15 1.04 1.02 1.18 1.27 1.23 1.20 1.07 0.91
0.84 0.86 0.78 0.72 0.71 0.67 0.68 0.65 0.60 0.63 0.68 0.67 0.68 0.65 0.59 0.52 0.57 0.55 0.46 0.49 0.57 0.62 0.65 0.66 0.61 0.54 0.51 0.52 0.52 0.59 0.74 0.92 1.10 1.23 1.19 1.12 1.06 1.17 1.27 1.22 1.28 1.28 1.16
0.82 0.78 0.75 0.74 0.71 0.67 0.64 0.64 0.62 0.64 0.68 0.70 0.69 0.69 0.65 0.59 0.60 0.55 0.51 0.52 0.60 0.70 0.74 0.73 0.63 0.53 0.59 0.61 0.59 0.56 0.60 0.68 0.92 1.19 1.31 1.21 1.15 1.24 1.37 1.36 1.38 1.39 1.29
0.79 0.74 0.68 0.69 0.71 0.71 0.74 0.76 0.73 0.69 0.72 0.79 0.79 0.73 0.72 0.67 0.64 0.59 0.55 0.55 0.57 0.65 0.70 0.69 0.74 0.74 0.66 0.62 0.57 0.62 0.71 0.78 0.83 0.92 1.13 1.15 1.04 1.07 1.24 1.31 1.33 1.31 1.24
0.74 0.67 0.62 0.60 0.65 0.67 0.69 0.72 0.73 0.74 0.77 0.81 0.80 0.77 0.77 0.72 0.63 0.58 0.60 0.62 0.58 0.58 0.56 0.56 0.64 0.70 0.64 0.59 0.62 0.72 0.80 0.86 0.73 0.82 0.91 1.03 1.08 1.01 1.00 1.10 1.32 1.48 1.49
0.66 0.58 0.55 0.57 0.61 0.61 0.64 0.68 0.72 0.75 0.76 0.75 0.77 0.79 0.76 0.71 0.57 0.50 0.54 0.56 0.56 0.54 0.57 0.60 0.59 0.55 0.55 0.55 0.64 0.80 0.91 0.88 0.91 1.06 1.23 1.34 1.31 1.21 1.05 1.14 1.40 1.59 1.64
0.54 0.55 0.58 0.61 0.66 0.62 0.65 0.71 0.72 0.71 0.75 0.73 0.70 0.69 0.66 0.56 0.46 0.41 0.41 0.42 0.49 0.52 0.59 0.65 0.63 0.52 0.50 0.49 0.58 0.74 0.87 0.91 1.16 1.47 1.52 1.44 1.36 1.29 1.19 1.16 1.29 1.45 1.61
0.57 0.59 0.60 0.62 0.52 0.50 0.66 0.69 0.65 0.71 0.75 0.67 0.63 0.61 0.56 0.48 0.36 0.30 0.29 0.32 0.38 0.47 0.65 0.64 0.59 0.54 0.46 0.46 0.56 0.75 0.83 1.04 1.36 1.57 1.49 1.30 1.16 1.10 1.04 1.03 1.10 1.20 1.36
0.72 0.71 0.65 0.64 0.62 0.64 0.67 0.64 0.62 0.64 0.60 0.49 0.46 0.47 0.44 0.43 0.39 0.29 0.26 0.29 0.35 0.41 0.57 0.61 0.58 0.56 0.55 0.68 0.77 0.90 1.02 1.23 1.46 1.46 1.32 1.19 1.09 1.01 0.93 0.95 0.97 1.03 1.04
0.80 0.73 0.68 0.69 0.72 0.69 0.62 0.51 0.49 0.46 0.44 0.43 0.40 0.39 0.38 0.37 0.31 0.25 0.25 0.29 0.35 0.40 0.51 0.66 0.75 0.79 0.82 0.92 1.02 1.12 1.22 1.32 1.30 1.22 1.10 1.04 0.96 0.95 0.92 0.92 0.95 0.97 1.02
0.81 0.75 0.68 0.60 0.59 0.59 0.46 0.35 0.35 0.33 0.30 0.36 0.38 0.35 0.35 0.32 0.24 0.24 0.25 0.26 0.34 0.41 0.48 0.69 0.90 0.98 1.05 1.10 1.09 1.14 1.20 1.17 1.14 1.10 1.03 0.94 0.90 0.90 0.92 0.91 0.96 0.93 0.97
0.73 0.68 0.58 0.47 0.43 0.38 0.34 0.33 0.28 0.24 0.26 0.29 0.33 0.30 0.24 0.23 0.20 0.20 0.25 0.29 0.36 0.47 0.55 0.79 0.99 1.04 1.07 1.10 1.06 1.07 1.09 1.05 0.99 0.98 0.99 0.94 0.91 0.90 0.92 0.95 1.00 0.99 1.01
0.63 0.56 0.43 0.33 0.30 0.29 0.30 0.39 0.42 0.32 0.26 0.27 0.26 0.25 0.24 0.23 0.22 0.22 0.26 0.33 0.39 0.47 0.57 0.79 0.98 1.14 1.17 1.08 1.00 0.97 1.01 1.02 0.98 0.95 0.94 0.93 0.89 0.87 0.90 0.93 0.94 0.92 0.94
0.46 0.37 0.30 0.27 0.23 0.21 0.21 0.29 0.43 0.47 0.43 0.40 0.35 0.28 0.26 0.26 0.26 0.24 0.27 0.32 0.43 0.50 0.63 0.80 0.94 1.02 1.06 1.05 0.97 0.94 0.94 0.95 0.95 0.93 0.89 0.89 0.86 0.84 0.83 0.86 0.87 0.81 0.80
0.35 0.28 0.25 0.21 0.19 0.18 0.18 0.23 0.31 0.35 0.40 0.44 0.43 0.34 0.30 0.29 0.32 0.32 0.30 0.34 0.45 0.54 0.64 0.73 0.81 0.82 0.81 0.82 0.81 0.80 0.81 0.84 0.84 0.81 0.81 0.83 0.84 0.81 0.80 0.77 0.73 0.66 0.68
0.27 0.20 0.19 0.15 0.14 0.15 0.16 0.21 0.28 0.30 0.33 0.39 0.40 0.35 0.31 0.36 0.43 0.43 0.39 0.38 0.40 0.46 0.55 0.63 0.69 0.66 0.64 0.64 0.62 0.61 0.62 0.64 0.64 0.63 0.65 0.67 0.70 0.71 0.69 0.66 0.63 0.63 0.68
0.17 0.17 0.15 0.12 0.12 0.14 0.15 0.21 0.26 0.26 0.26 0.33 0.33 0.27 0.30 0.36 0.45 0.49 0.51 0.50 0.49 0.47 0.48 0.50 0.55 0.59 0.58 0.56 0.53 0.50 0.50 0.51 0.50 0.53 0.56 0.61 0.64 0.63 0.59 0.56 0.55 0.55 0.59
0.16 0.16 0.11 0.10 0.11 0.13 0.16 0.18 0.20 0.20 0.21 0.23 0.22 0.20 0.26 0.30 0.38 0.41 0.49 0.56 0.57 0.53 0.49 0.48 0.50 0.54 0.59 0.58 0.52 0.48 0.47 0.47 0.46 0.50 0.55 0.58 0.58 0.53 0.49 0.48 0.48 0.52 0.54
0.13 0.15 0.11 0.08 0.10 0.14 0.17 0.19 0.19 0.18 0.19 0.19 0.18 0.19 0.22 0.30 0.33 0.36 0.43 0.50 0.54 0.54 0.50 0.47 0.50 0.54 0.55 0.56 0.52 0.45 0.41 0.39 0.39 0.42 0.50 0.53 0.52 0.49 0.46 0.47 0.47 0.49 0.53
0.11 0.14 0.11 0.10 0.11 0.12 0.16 0.17 0.15 0.14 0.15 0.14 0.15 0.18 0.22 0.28 0.31 0.34 0.39 0.44 0.49 0.52 0.50 0.49 0.49 0.48 0.47 0.48 0.44 0.35 0.31 0.31 0.30 0.32 0.39 0.45 0.46 0.43 0.42 0.43 0.44 0.44 0.46
0.09 0.12 0.11 0.11 0.11 0.12 0.14 0.15 0.12 0.11 0.11 0.11 0.13 0.16 0.18 0.21 0.26 0.28 0.32 0.37 0.42 0.46 0.46 0.44 0.44 0.40 0.37 0.37 0.35 0.29 0.28 0.29 0.29 0.30 0.34 0.38 0.38 0.40 0.42 0.42 0.40 0.40 0.42
0.09 0.12 0.12 0.13 0.16 0.16 0.15 0.13 0.11 0.11 0.11 0.12 0.13 0.14 0.14 0.17 0.21 0.24 0.26 0.28 0.33 0.39 0.41 0.41 0.38 0.35 0.31 0.28 0.29 0.29 0.29 0.27 0.27 0.29 0.33 0.38 0.40 0.41 0.42 0.42 0.38 0.40 0.44

GEFSGL_prec_meanprecacc_252.txt.gz
Total_Precipitation_Accumulation
1.26 1.25 1.20 1.17 1.18 1.16 1.09 1.04 1.01 1.02 0.99 0.93 0.84 0.79 0.76 0.76 0.82 0.92 0.98 0.97 0.99 0.98 0.96 0.95 0.98 1.02 1.12 1.11 1.14 1.20 1.36 1.54 1.62 1.39 1.21 1.16 1.20 1.22 1.21 1.16 1.00 0.88 0.83
1.14 1.14 1.04 0.98 1.00 1.05 1.01 0.93 0.87 0.87 0.84 0.80 0.76 0.72 0.67 0.70 0.78 0.82 0.82 0.81 0.86 0.86 0.83 0.83 0.84 0.90 0.99 1.02 1.07 1.11 1.21 1.35 1.45 1.45 1.29 1.18 1.17 1.20 1.21 1.20 0.97 0.77 0.73
1.11 1.13 1.11 1.04 0.99 0.94 0.90 0.81 0.74 0.75 0.75 0.72 0.71 0.70 0.70 0.68 0.71 0.72 0.67 0.69 0.74 0.80 0.79 0.77 0.78 0.84 0.87 0.90 0.96 1.00 1.05 1.08 1.22 1.26 1.14 1.08 1.06 1.06 1.19 1.20 1.10 1.03 0.72
1.00 1.09 1.12 1.06 0.97 0.88 0.84 0.85 0.78 0.74 0.70 0.66 0.65 0.65 0.63 0.59 0.63 0.64 0.61 0.66 0.74 0.72 0.68 0.68 0.71 0.69 0.70 0.78 0.83 0.94 1.03 1.11 1.16 1.17 1.09 0.99 1.02 1.08 1.31 1.36 1.26 1.11 0.89
0.92 0.96 0.94 0.90 0.90 0.82 0.77 0.80 0.76 0.72 0.67 0.67 0.62 0.60 0.57 0.54 0.55 0.57 0.53 0.52 0.63 0.64 0.64 0.65 0.63 0.59 0.59 0.64 0.67 0.77 0.94 1.11 1.18 1.22 1.16 1.05 1.03 1.20 1.28 1.24 1.22 1.09 0.93
0.87 0.88 0.80 0.75 0.74 0.70 0.69 0.66 0.62 0.65 0.69 0.68 0.68 0.66 0.59 0.52 0.57 0.55 0.47 0.49 0.58 0.62 0.65 0.66 0.62 0.55 0.51 0.53 0.53 0.59 0.75 0.93 1.11 1.24 1.20 1.13 1.07 1.18 1.28 1.24 1.29 1.30 1.18
0.85 0.80 0.76 0.75 0.73 0.68 0.65 0.64 0.63 0.64 0.69 0.71 0.70 0.69 0.66 0.60 0.60 0.56 0.51 0.52 0.60 0.71 0.74 0.73 0.63 0.53 0.60 0.62 0.60 0.57 0.60 0.69 0.92 1.19 1.31 1.21 1.16 1.25 1.39 1.39 1.40 1.41 1.32
0.86 0.77 0.69 0.70 0.73 0.72 0.74 0.76 0.73 0.70 0.73 0.80 0.80 0.73 0.72 0.67 0.64 0.59 0.55 0.55 0.57 0.66 0.70 0.70 0.74 0.75 0.67 0.63 0.57 0.63 0.72 0.78 0.84 0.92 1.14 1.16 1.05 1.09 1.26 1.34 1.37 1.34 1.27
0.79 0.70 0.63 0.61 0.66 0.68 0.70 0.73 0.74 0.75 0.77 0.82 0.80 0.77 0.77 0.72 0.63 0.59 0.61 0.63 0.59 0.58 0.56 0.57 0.65 0.71 0.65 0.60 0.63 0.73 0.81 0.86 0.74 0.82 0.91 1.04 1.09 1.03 1.03 1.12 1.35 1.52 1.52
0.69 0.60 0.56 0.58 0.62 0.62 0.64 0.68 0.72 0.75 0.76 0.76 0.77 0.79 0.76 0.71 0.58 0.52 0.56 0.57 0.57 0.55 0.58 0.61 0.60 0.55 0.56 0.56 0.66 0.81 0.91 0.89 0.91 1.07 1.24 1.35 1.32 1.23 1.08 1.16 1.43 1.63 1.67
0.55 0.56 0.58 0.62 0.66 0.63 0.66 0.72 0.73 0.72 0.76 0.73 0.70 0.69 0.66 0.56 0.47 0.42 0.42 0.43 0.49 0.52 0.59 0.66 0.63 0.53 0.51 0.51 0.60 0.76 0.89 0.93 1.17 1.48 1.54 1.45 1.37 1.31 1.22 1.19 1.31 1.48 1.64
0.58 0.60 0.60 0.62 0.53 0.51 0.67 0.70 0.66 0.71 0.75 0.67 0.63 0.61 0.56 0.48 0.37 0.30 0.30 0.33 0.39 0.48 0.66 0.65 0.60 0.55 0.47 0.47 0.57 0.75 0.84 1.07 1.39 1.59 1.50 1.31 1.18 1.12 1.07 1.06 1.13 1.22 1.39
0.73 0.72 0.65 0.64 0.62 0.65 0.68 0.65 0.63 0.64 0.60 0.49 0.46 0.48 0.45 0.44 0.40 0.29 0.27 0.30 0.36 0.41 0.58 0.62 0.58 0.56 0.55 0.69 0.78 0.90 1.03 1.25 1.49 1.49 1.34 1.21 1.12 1.04 0.97 1.00 1.01 1.06 1.06
0.81 0.74 0.69 0.70 0.73 0.70 0.63 0.52 0.50 0.47 0.44 0.43 0.41 0.40 0.38 0.37 0.31 0.26 0.25 0.30 0.36 0.40 0.52 0.67 0.76 0.79 0.83 0.94 1.04 1.15 1.24 1.34 1.33 1.25 1.13 1.07 1.00 0.98 0.96 0.97 1.00 0.99 1.04
0.83 0.76 0.69 0.62 0.61 0.61 0.47 0.35 0.35 0.33 0.31 0.37 0.39 0.36 0.36 0.33 0.25 0.25 0.25 0.28 0.35 0.42 0.49 0.69 0.91 0.99 1.06 1.12 1.13 1.18 1.23 1.19 1.16 1.11 1.07 0.99 0.94 0.94 0.96 0.96 1.01 0.96 0.98
0.75 0.70 0.59 0.49 0.45 0.40 0.35 0.34 0.28 0.24 0.26 0.29 0.33 0.31 0.25 0.24 0.22 0.21 0.26 0.31 0.37 0.48 0.55 0.79 0.99 1.05 1.08 1.12 1.10 1.11 1.13 1.08 1.01 0.99 1.01 0.98 0.96 0.95 0.96 1.00 1.04 1.03 1.03
0.65 0.58 0.44 0.34 0.32 0.31 0.32 0.40 0.42 0.33 0.27 0.27 0.27 0.26 0.25 0.24 0.23 0.22 0.27 0.34 0.39 0.47 0.57 0.79 0.98 1.14 1.17 1.08 1.01 0.99 1.03 1.04 0.99 0.97 0.96 0.96 0.92 0.89 0.92 0.96 0.97 0.95 0.96
0.47 0.39 0.32 0.29 0.24 0.23 0.22 0.30 0.44 0.47 0.43 0.41 0.36 0.28 0.27 0.26 0.26 0.25 0.28 0.32 0.43 0.50 0.63 0.80 0.94 1.02 1.06 1.05 0.97 0.95 0.96 0.97 0.97 0.95 0.92 0.91 0.88 0.86 0.84 0.88 0.89 0.82 0.81
0.36 0.30 0.27 0.23 0.20 0.20 0.20 0.24 0.32 0.35 0.41 0.46 0.44 0.35 0.30 0.29 0.32 0.32 0.30 0.34 0.45 0.54 0.64 0.74 0.82 0.83 0.81 0.82 0.82 0.81 0.82 0.86 0.86 0.83 0.83 0.85 0.86 0.83 0.81 0.78 0.74 0.66 0.69
0.28 0.22 0.20 0.16 0.15 0.16 0.17 0.22 0.29 0.30 0.34 0.40 0.41 0.36 0.31 0.36 0.43 0.43 0.39 0.38 0.41 0.46 0.55 0.64 0.70 0.67 0.65 0.65 0.63 0.62 0.64 0.65 0.65 0.65 0.66 0.69 0.72 0.73 0.71 0.67 0.63 0.63 0.68
0.18 0.18 0.16 0.13 0.13 0.15 0.16 0.21 0.26 0.26 0.27 0.33 0.33 0.28 0.30 0.36 0.46 0.50 0.51 0.50 0.49 0.48 0.50 0.51 0.56 0.60 0.59 0.58 0.55 0.52 0.51 0.52 0.51 0.53 0.57 0.62 0.64 0.64 0.59 0.56 0.56 0.55 0.59
0.18 0.19 0.13 0.11 0.12 0.14 0.16 0.18 0.20 0.20 0.21 0.23 0.22 0.20 0.27 0.31 0.38 0.42 0.49 0.56 0.57 0.54 0.50 0.48 0.51 0.56 0.61 0.61 0.54 0.49 0.48 0.48 0.47 0.51 0.55 0.58 0.58 0.54 0.50 0.49 0.49 0.52 0.55
0.15 0.17 0.13 0.10 0.12 0.15 0.17 0.19 0.19 0.18 0.19 0.19 0.18 0.19 0.23 0.30 0.34 0.37 0.43 0.50 0.55 0.54 0.50 0.48 0.52 0.55 0.58 0.60 0.56 0.47 0.42 0.40 0.40 0.43 0.50 0.54 0.53 0.49 0.46 0.48 0.48 0.51 0.54
0.12 0.15 0.13 0.12 0.13 0.14 0.16 0.17 0.15 0.15 0.15 0.15 0.15 0.18 0.22 0.28 0.31 0.35 0.39 0.44 0.49 0.52 0.50 0.49 0.50 0.50 0.50 0.51 0.47 0.38 0.33 0.31 0.30 0.32 0.39 0.46 0.46 0.44 0.42 0.44 0.44 0.45 0.47
0.11 0.13 0.12 0.13 0.13 0.14 0.15 0.16 0.13 0.13 0.12 0.12 0.14 0.16 0.18 0.22 0.26 0.28 0.32 0.37 0.42 0.46 0.46 0.45 0.45 0.42 0.40 0.39 0.36 0.30 0.29 0.30 0.30 0.31 0.35 0.39 0.39 0.41 0.43 0.43 0.41 0.41 0.43
0.11 0.14 0.14 0.15 0.19 0.19 0.18 0.16 0.14 0.13 0.13 0.13 0.14 0.14 0.15 0.17 0.21 0.24 0.26 0.29 0.34 0.40 0.43 0.42 0.40 0.37 0.33 0.30 0.31 0.31 0.29 0.27 0.28 0.30 0.34 0.40 0.41 0.42 0.43 0.43 0.39 0.41 0.46

GEFSGL_prec_meanprecacc_258.txt.gz
Total_Precipitation_Accumulation
1.28 1.27 1.22 1.19 1.21 1.19 1.11 1.06 1.04 1.04 1.02 0.96 0.89 0.85 0.82 0.81 0.86 0.97 1.03 1.03 1.06 1.04 1.00 0.99 1.03 1.08 1.17 1.15 1.19 1.25 1.40 1.59 1.67 1.42 1.24 1.19 1.23 1.25 1.24 1.19 1.04 0.91 0.85
1.16 1.17 1.08 1.03 1.03 1.08 1.04 0.95 0.90 0.90 0.88 0.85 0.82 0.79 0.75 0.77 0.84 0.87 0.88 0.86 0.92 0.90 0.87 0.86 0.87 0.94 1.03 1.06 1.10 1.14 1.23 1.38 1.50 1.50 1.33 1.22 1.20 1.23 1.25 1.24 1.01 0.81 0.76
1.14 1.17 1.16 1.09 1.04 1.00 0.95 0.86 0.80 0.82 0.84 0.81 0.79 0.80 0.80 0.75 0.77 0.78 0.75 0.76 0.80 0.83 0.81 0.78 0.79 0.87 0.90 0.93 0.98 1.02 1.07 1.10 1.25 1.28 1.16 1.10 1.08 1.09 1.23 1.24 1.15 1.08 0.76
1.02 1.12 1.15 1.09 1.01 0.93 0.90 0.90 0.83 0.80 0.77 0.75 0.75 0.74 0.71 0.66 0.68 0.70 0.67 0.72 0.79 0.75 0.70 0.70 0.72 0.71 0.72 0.80 0.84 0.95 1.04 1.13 1.18 1.19 1.10 1.00 1.04 1.10 1.33 1.39 1.30 1.14 0.93
0.93 0.98 0.95 0.91 0.92 0.85 0.81 0.85 0.80 0.76 0.72 0.72 0.68 0.67 0.62 0.59 0.59 0.61 0.58 0.56 0.67 0.68 0.66 0.66 0.64 0.61 0.60 0.65 0.68 0.78 0.95 1.12 1.19 1.24 1.16 1.05 1.05 1.21 1.30 1.26 1.24 1.12 0.96
0.90 0.90 0.82 0.76 0.76 0.72 0.72 0.68 0.65 0.67 0.72 0.72 0.73 0.70 0.63 0.56 0.61 0.59 0.50 0.53 0.61 0.65 0.67 0.68 0.63 0.56 0.52 0.53 0.53 0.60 0.75 0.94 1.12 1.26 1.21 1.14 1.08 1.20 1.30 1.26 1.32 1.32 1.21
0.88 0.83 0.79 0.77 0.75 0.70 0.67 0.66 0.65 0.66 0.70 0.73 0.73 0.72 0.68 0.61 0.62 0.57 0.53 0.54 0.63 0.73 0.76 0.75 0.64 0.54 0.61 0.62 0.60 0.57 0.61 0.69 0.93 1.21 1.33 1.22 1.17 1.26 1.41 1.41 1.43 1.44 1.35
0.87 0.80 0.74 0.74 0.75 0.73 0.75 0.78 0.75 0.71 0.74 0.81 0.81 0.75 0.73 0.68 0.65 0.60 0.56 0.57 0.60 0.68 0.71 0.71 0.75 0.76 0.68 0.64 0.58 0.64 0.73 0.80 0.84 0.92 1.14 1.17 1.06 1.10 1.28 1.36 1.40 1.37 1.30
0.82 0.73 0.67 0.64 0.69 0.69 0.71 0.74 0.75 0.76 0.78 0.83 0.82 0.79 0.78 0.73 0.64 0.59 0.62 0.64 0.60 0.60 0.58 0.58 0.66 0.71 0.66 0.61 0.64 0.74 0.82 0.88 0.75 0.83 0.92 1.04 1.10 1.04 1.04 1.14 1.37 1.54 1.55
0.71 0.63 0.58 0.60 0.64 0.64 0.65 0.69 0.73 0.76 0.77 0.77 0.80 0.81 0.77 0.71 0.59 0.53 0.57 0.58 0.58 0.56 0.59 0.62 0.60 0.56 0.56 0.57 0.67 0.83 0.93 0.91 0.93 1.08 1.25 1.36 1.33 1.23 1.08 1.17 1.45 1.66 1.70
0.57 0.58 0.62 0.65 0.68 0.64 0.68 0.73 0.74 0.72 0.76 0.75 0.73 0.70 0.68 0.57 0.47 0.43 0.43 0.44 0.50 0.53 0.60 0.66 0.64 0.53 0.52 0.51 0.61 0.77 0.91 0.95 1.19 1.50 1.56 1.47 1.39 1.33 1.23 1.21 1.33 1.50 1.67
0.60 0.62 0.64 0.67 0.56 0.53 0.68 0.71 0.67 0.73 0.77 0.70 0.65 0.63 0.57 0.49 0.37 0.31 0.30 0.33 0.39 0.48 0.67 0.65 0.60 0.55 0.48 0.48 0.58 0.76 0.86 1.09 1.41 1.62 1.53 1.34 1.21 1.14 1.10 1.08 1.16 1.25 1.42
0.75 0.75 0.68 0.66 0.64 0.67 0.70 0.66 0.64 0.66 0.62 0.50 0.47 0.49 0.45 0.45 0.41 0.30 0.27 0.30 0.36 0.42 0.58 0.62 0.59 0.57 0.56 0.70 0.80 0.92 1.04 1.27 1.52 1.52 1.37 1.24 1.15 1.07 1.00 1.03 1.04 1.09 1.08
0.83 0.76 0.70 0.72 0.76 0.73 0.66 0.54 0.52 0.48 0.45 0.44 0.42 0.41 0.40 0.38 0.33 0.27 0.26 0.30 0.37 0.41 0.52 0.68 0.76 0.80 0.83 0.95 1.06 1.16 1.26 1.35 1.34 1.28 1.17 1.11 1.03 1.01 0.98 0.99 1.03 1.02 1.07
0.86 0.78 0.71 0.64 0.64 0.65 0.51 0.38 0.37 0.35 0.32 0.37 0.40 0.37 0.37 0.34 0.25 0.26 0.26 0.28 0.35 0.42 0.50 0.70 0.92 0.99 1.06 1.13 1.14 1.19 1.25 1.21 1.17 1.13 1.09 1.03 0.98 0.97 0.98 0.99 1.05 1.00 1.01
0.79 0.73 0.62 0.51 0.47 0.42 0.38 0.36 0.30 0.26 0.27 0.30 0.34 0.31 0.25 0.24 0.22 0.22 0.26 0.31 0.38 0.48 0.56 0.79 1.00 1.06 1.09 1.12 1.11 1.13 1.14 1.09 1.02 1.01 1.04 1.01 0.99 0.97 0.99 1.03 1.09 1.07 1.07
0.68 0.62 0.47 0.36 0.33 0.33 0.34 0.42 0.44 0.34 0.28 0.28 0.27 0.26 0.25 0.25 0.23 0.22 0.27 0.34 0.39 0.47 0.57 0.79 0.99 1.14 1.17 1.08 1.02 1.01 1.05 1.04 1.00 0.99 0.99 0.99 0.95 0.92 0.96 1.00 1.02 1.01 1.02
0.49 0.41 0.34 0.30 0.26 0.24 0.24 0.31 0.45 0.49 0.44 0.42 0.36 0.29 0.27 0.27 0.26 0.25 0.28 0.32 0.43 0.51 0.64 0.80 0.94 1.02 1.06 1.06 0.98 0.96 0.97 0.98 0.98 0.96 0.94 0.94 0.92 0.89 0.88 0.92 0.93 0.88 0.87
0.37 0.31 0.28 0.24 0.22 0.21 0.21 0.25 0.33 0.37 0.42 0.47 0.45 0.36 0.31 0.30 0.32 0.32 0.30 0.34 0.45 0.54 0.65 0.74 0.82 0.83 0.81 0.83 0.82 0.82 0.84 0.87 0.87 0.84 0.84 0.87 0.88 0.87 0.85 0.82 0.79 0.72 0.74
0.29 0.24 0.22 0.18 0.17 0.18 0.19 0.24 0.31 0.32 0.35 0.41 0.42 0.37 0.32 0.37 0.44 0.43 0.39 0.39 0.41 0.47 0.56 0.64 0.70 0.67 0.65 0.65 0.64 0.63 0.65 0.67 0.66 0.66 0.68 0.70 0.74 0.76 0.74 0.70 0.68 0.68 0.73
0.19 0.19 0.18 0.15 0.15 0.17 0.18 0.24 0.29 0.28 0.28 0.34 0.34 0.28 0.30 0.36 0.46 0.50 0.51 0.51 0.50 0.48 0.50 0.52 0.57 0.61 0.60 0.59 0.56 0.52 0.52 0.53 0.53 0.55 0.59 0.64 0.66 0.66 0.62 0.60 0.59 0.59 0.63
0.19 0.20 0.15 0.13 0.14 0.16 0.18 0.21 0.23 0.22 0.23 0.24 0.23 0.21 0.27 0.31 0.38 0.42 0.50 0.57 0.58 0.55 0.51 0.49 0.52 0.57 0.62 0.62 0.55 0.50 0.49 0.49 0.49 0.53 0.57 0.60 0.60 0.56 0.52 0.51 0.51 0.54 0.56
0.16 0.19 0.16 0.13 0.14 0.17 0.20 0.21 0.21 0.19 0.20 0.20 0.19 0.20 0.23 0.31 0.34 0.38 0.44 0.51 0.55 0.55 0.51 0.49 0.53 0.57 0.59 0.61 0.57 0.48 0.43 0.41 0.41 0.44 0.52 0.55 0.54 0.51 0.48 0.49 0.49 0.52 0.55
0.16 0.19 0.17 0.15 0.15 0.16 0.18 0.19 0.17 0.16 0.17 0.17 0.17 0.19 0.23 0.29 0.32 0.36 0.40 0.44 0.49 0.53 0.52 0.51 0.52 0.52 0.51 0.52 0.47 0.38 0.34 0.33 0.32 0.34 0.40 0.47 0.48 0.45 0.44 0.45 0.45 0.46 0.48
0.15 0.17 0.15 0.14 0.15 0.16 0.17 0.17 0.15 0.14 0.14 0.14 0.16 0.18 0.19 0.23 0.27 0.29 0.33 0.37 0.42 0.47 0.47 0.46 0.47 0.43 0.40 0.39 0.37 0.30 0.29 0.30 0.31 0.32 0.36 0.40 0.40 0.42 0.44 0.44 0.42 0.42 0.44
0.14 0.15 0.15 0.16 0.20 0.21 0.20 0.17 0.15 0.14 0.14 0.15 0.16 0.16 0.16 0.19 0.23 0.25 0.27 0.30 0.35 0.41 0.44 0.43 0.40 0.37 0.33 0.31 0.31 0.31 0.30 0.28 0.28 0.31 0.36 0.41 0.42 0.44 0.45 0.45 0.41 0.43 0.48

GEFSGL_prec_meanprecacc_264.txt.gz
Total_Precipitation_Accumulation
1.33 1.33 1.26 1.23 1.26 1.25 1.17 1.10 1.08 1.07 1.04 0.98 0.91 0.88 0.86 0.86 0.92 1.05 1.12 1.12 1.15 1.13 1.09 1.06 1.09 1.13 1.22 1.21 1.24 1.31 1.47 1.65 1.72 1.46 1.28 1.22 1.26 1.27 1.27 1.22 1.06 0.92 0.86
1.22 1.23 1.12 1.06 1.07 1.12 1.07 0.98 0.92 0.92 0.91 0.87 0.84 0.82 0.78 0.80 0.89 0.93 0.94 0.93 0.99 0.97 0.94 0.92 0.92 0.99 1.08 1.10 1.15 1.18 1.28 1.44 1.56 1.54 1.37 1.25 1.23 1.26 1.29 1.28 1.04 0.82 0.77
1.18 1.21 1.19 1.12 1.07 1.03 0.99 0.90 0.82 0.84 0.86 0.83 0.81 0.83 0.83 0.79 0.81 0.81 0.79 0.81 0.86 0.88 0.86 0.83 0.84 0.92 0.95 0.98 1.03 1.07 1.12 1.14 1.29 1.32 1.20 1.14 1.11 1.12 1.26 1.27 1.18 1.12 0.78
1.04 1.15 1.19 1.13 1.05 0.97 0.94 0.94 0.86 0.83 0.80 0.77 0.77 0.78 0.74 0.70 0.73 0.75 0.72 0.77 0.85 0.81 0.75 0.75 0.77 0.77 0.77 0.85 0.88 1.00 1.09 1.18 1.24 1.24 1.15 1.05 1.08 1.13 1.35 1.41 1.33 1.17 0.96
0.97 1.01 0.99 0.95 0.95 0.88 0.85 0.89 0.83 0.80 0.75 0.75 0.73 0.71 0.66 0.63 0.64 0.67 0.64 0.62 0.73 0.73 0.72 0.72 0.70 0.66 0.65 0.69 0.71 0.82 0.99 1.18 1.25 1.29 1.21 1.10 1.09 1.25 1.32 1.28 1.27 1.16 1.00
0.96 0.94 0.85 0.79 0.77 0.74 0.74 0.72 0.69 0.71 0.75 0.76 0.78 0.76 0.69 0.60 0.65 0.63 0.55 0.59 0.67 0.71 0.73 0.73 0.69 0.61 0.57 0.56 0.55 0.61 0.78 0.98 1.17 1.32 1.26 1.18 1.12 1.23 1.34 1.29 1.35 1.36 1.25
0.95 0.87 0.82 0.79 0.76 0.71 0.67 0.68 0.68 0.70 0.74 0.77 0.77 0.78 0.73 0.65 0.66 0.61 0.57 0.59 0.68 0.80 0.83 0.81 0.68 0.57 0.64 0.64 0.61 0.58 0.63 0.72 0.98 1.27 1.39 1.27 1.22 1.31 1.45 1.44 1.46 1.49 1.40
0.95 0.85 0.77 0.76 0.77 0.75 0.77 0.80 0.78 0.75 0.78 0.85 0.86 0.81 0.78 0.72 0.68 0.62 0.58 0.60 0.64 0.73 0.77 0.76 0.81 0.82 0.71 0.66 0.60 0.66 0.76 0.82 0.87 0.95 1.17 1.20 1.09 1.15 1.32 1.39 1.43 1.40 1.34
0.89 0.78 0.70 0.67 0.71 0.72 0.73 0.77 0.79 0.81 0.83 0.88 0.87 0.84 0.82 0.76 0.66 0.61 0.63 0.66 0.63 0.64 0.62 0.62 0.69 0.75 0.67 0.62 0.65 0.76 0.84 0.90 0.77 0.85 0.94 1.06 1.13 1.07 1.07 1.16 1.39 1.57 1.57
0.75 0.67 0.62 0.64 0.68 0.68 0.69 0.73 0.78 0.81 0.82 0.82 0.85 0.85 0.81 0.74 0.60 0.54 0.59 0.60 0.61 0.60 0.62 0.65 0.62 0.57 0.57 0.58 0.68 0.85 0.95 0.93 0.97 1.13 1.29 1.38 1.35 1.25 1.10 1.19 1.47 1.68 1.72
0.60 0.62 0.65 0.69 0.73 0.68 0.72 0.76 0.78 0.78 0.83 0.82 0.78 0.75 0.72 0.60 0.49 0.44 0.44 0.46 0.53 0.55 0.62 0.68 0.65 0.54 0.52 0.52 0.62 0.79 0.94 0.99 1.23 1.54 1.60 1.51 1.41 1.35 1.25 1.22 1.35 1.53 1.70
0.64 0.67 0.68 0.70 0.59 0.56 0.72 0.75 0.72 0.78 0.83 0.77 0.73 0.69 0.61 0.53 0.40 0.33 0.32 0.35 0.42 0.51 0.70 0.68 0.62 0.56 0.49 0.49 0.59 0.78 0.88 1.10 1.43 1.65 1.56 1.37 1.24 1.17 1.12 1.10 1.17 1.27 1.45
0.80 0.80 0.73 0.71 0.69 0.71 0.74 0.70 0.68 0.71 0.67 0.56 0.53 0.54 0.50 0.48 0.44 0.32 0.29 0.31 0.37 0.43 0.61 0.64 0.60 0.58 0.57 0.71 0.81 0.94 1.05 1.28 1.53 1.53 1.38 1.26 1.18 1.10 1.03 1.07 1.08 1.12 1.12
0.87 0.81 0.74 0.75 0.79 0.78 0.70 0.58 0.55 0.52 0.50 0.49 0.46 0.46 0.44 0.43 0.37 0.29 0.28 0.32 0.37 0.42 0.53 0.69 0.77 0.80 0.84 0.96 1.07 1.18 1.28 1.37 1.35 1.29 1.18 1.14 1.07 1.06 1.04 1.03 1.07 1.06 1.11
0.90 0.82 0.74 0.66 0.67 0.69 0.55 0.41 0.39 0.37 0.36 0.42 0.44 0.42 0.42 0.38 0.29 0.28 0.27 0.29 0.36 0.43 0.50 0.71 0.92 1.00 1.08 1.14 1.15 1.21 1.27 1.23 1.19 1.15 1.12 1.07 1.03 1.03 1.04 1.04 1.10 1.05 1.06
0.84 0.77 0.66 0.55 0.51 0.45 0.41 0.39 0.32 0.27 0.28 0.31 0.36 0.34 0.28 0.27 0.24 0.23 0.27 0.31 0.38 0.48 0.56 0.80 1.00 1.07 1.10 1.13 1.12 1.14 1.16 1.11 1.05 1.04 1.07 1.06 1.04 1.03 1.05 1.10 1.15 1.13 1.13
0.73 0.67 0.52 0.43 0.39 0.36 0.37 0.44 0.47 0.36 0.29 0.29 0.28 0.27 0.26 0.26 0.24 0.23 0.28 0.34 0.40 0.48 0.58 0.80 1.00 1.15 1.18 1.09 1.03 1.02 1.06 1.06 1.03 1.02 1.03 1.04 1.01 0.98 1.01 1.05 1.08 1.07 1.07
0.53 0.47 0.40 0.36 0.32 0.30 0.28 0.34 0.48 0.52 0.46 0.43 0.37 0.30 0.28 0.27 0.27 0.25 0.28 0.33 0.44 0.51 0.64 0.81 0.95 1.03 1.06 1.06 0.98 0.97 0.98 0.99 1.00 0.99 0.97 0.99 0.98 0.96 0.94 0.98 0.99 0.93 0.92
0.40 0.35 0.32 0.28 0.27 0.26 0.26 0.29 0.37 0.40 0.45 0.49 0.46 0.37 0.32 0.30 0.33 0.32 0.31 0.36 0.47 0.55 0.65 0.74 0.82 0.83 0.82 0.83 0.83 0.83 0.85 0.87 0.88 0.86 0.87 0.91 0.94 0.94 0.92 0.88 0.84 0.77 0.79
0.32 0.27 0.26 0.21 0.21 0.22 0.24 0.28 0.35 0.36 0.38 0.44 0.45 0.39 0.34 0.38 0.45 0.44 0.40 0.39 0.42 0.48 0.57 0.65 0.71 0.68 0.65 0.66 0.65 0.64 0.65 0.67 0.67 0.68 0.70 0.73 0.78 0.82 0.81 0.75 0.72 0.72 0.78
0.22 0.22 0.21 0.18 0.18 0.21 0.23 0.28 0.34 0.35 0.33 0.39 0.38 0.32 0.33 0.38 0.48 0.51 0.52 0.51 0.50 0.49 0.51 0.53 0.58 0.62 0.61 0.60 0.56 0.53 0.53 0.54 0.54 0.57 0.61 0.66 0.69 0.70 0.67 0.65 0.64 0.64 0.69
0.22 0.22 0.17 0.16 0.18 0.20 0.23 0.26 0.28 0.29 0.29 0.30 0.28 0.25 0.30 0.33 0.40 0.45 0.52 0.59 0.59 0.56 0.52 0.51 0.53 0.58 0.63 0.63 0.56 0.51 0.51 0.51 0.51 0.54 0.59 0.63 0.63 0.59 0.55 0.55 0.56 0.59 0.62
0.19 0.22 0.19 0.16 0.18 0.22 0.24 0.25 0.26 0.25 0.27 0.27 0.26 0.26 0.28 0.35 0.37 0.40 0.47 0.54 0.58 0.57 0.54 0.52 0.55 0.58 0.60 0.61 0.58 0.49 0.45 0.44 0.44 0.47 0.53 0.57 0.57 0.53 0.50 0.51 0.51 0.55 0.59
0.18 0.22 0.20 0.18 0.18 0.19 0.21 0.22 0.20 0.19 0.21 0.23 0.24 0.25 0.27 0.33 0.36 0.39 0.42 0.46 0.51 0.55 0.54 0.53 0.53 0.53 0.52 0.52 0.48 0.39 0.34 0.34 0.33 0.35 0.42 0.48 0.49 0.47 0.46 0.48 0.47 0.48 0.50
0.16 0.19 0.17 0.17 0.17 0.18 0.19 0.19 0.17 0.16 0.17 0.18 0.21 0.23 0.23 0.25 0.29 0.31 0.35 0.40 0.45 0.50 0.50 0.49 0.49 0.44 0.41 0.40 0.38 0.31 0.30 0.31 0.32 0.33 0.37 0.41 0.42 0.44 0.46 0.46 0.44 0.44 0.47
0.16 0.18 0.17 0.18 0.22 0.23 0.23 0.20 0.17 0.17 0.17 0.18 0.19 0.20 0.20 0.22 0.25 0.27 0.29 0.31 0.36 0.43 0.47 0.47 0.43 0.39 0.35 0.32 0.32 0.32 0.30 0.28 0.29 0.33 0.37 0.43 0.44 0.45 0.47 0.47 0.43 0.45 0.50